GFSWCAN_500_spd_036.txt.gz
Wind_Speed
33 37 38 42 42 48 52 56 57 55 49 49 47 36 27 26 29 26 20 20 21 30 24 26 38 35 34 31 29 23 25 23 25 22 20 20 18 15 15 15 15 15 15 15 17 16 16 14 15 13 11 11 13 13
31 33 35 38 41 47 50 53 58 56 48 48 43 32 27 29 30 27 23 20 21 25 30 24 26 33 35 33 30 27 27 26 25 24 24 23 23 23 21 19 17 18 18 19 18 18 17 18 18 16 17 16 15 15
29 30 33 35 41 43 46 46 55 54 47 49 36 28 28 33 31 26 23 21 17 22 26 26 22 28 31 37 29 28 29 27 28 27 28 29 28 26 27 26 26 22 20 18 20 20 21 22 22 22 21 20 19 18
25 28 30 32 38 37 41 43 46 49 47 48 33 26 28 32 33 28 23 17 13 16 19 22 22 21 28 32 34 33 30 30 31 32 34 35 35 32 31 31 33 30 28 23 21 20 20 18 19 20 22 25 26 26
25 26 27 31 33 35 38 42 43 46 46 50 36 28 30 33 33 29 22 15 10 10 13 16 19 19 22 26 27 28 29 30 32 34 37 38 40 41 39 37 36 33 30 31 30 29 25 23 20 20 20 19 22 25
23 25 26 30 29 33 36 39 43 46 46 45 41 26 27 28 32 29 20 12 8 7 8 12 13 14 19 23 23 19 12 15 21 27 34 41 45 48 47 44 39 36 36 34 35 33 32 30 28 26 25 24 23 23
23 24 25 28 27 29 33 37 39 46 49 45 47 29 23 24 29 29 17 12 8 7 9 12 13 6 6 4 2 6 6 12 20 22 28 38 47 55 53 46 48 44 40 39 35 32 32 26 25 28 30 28 27 26
21 22 24 26 26 27 30 32 37 43 49 44 53 40 24 19 22 26 17 2 5 8 7 6 4 8 8 8 9 5 12 16 23 31 39 49 47 55 61 57 56 50 44 39 37 32 29 25 21 21 24 28 28 28
18 21 21 24 23 23 27 29 33 39 45 50 45 53 33 22 18 19 15 6 8 7 4 4 7 12 13 11 10 12 13 19 26 32 41 37 26 24 28 47 39 36 39 40 38 33 29 26 24 23 24 24 25 28
19 19 18 22 23 22 24 28 29 36 39 44 46 45 52 29 19 14 16 10 12 11 10 10 12 13 14 12 12 14 13 15 21 24 20 28 31 21 22 27 25 26 31 34 35 33 31 28 26 26 26 28 27 28
20 19 19 22 24 23 21 24 28 32 35 40 42 43 45 50 32 18 15 14 11 13 14 16 17 16 13 10 12 12 13 12 14 20 9 18 23 18 12 22 27 24 28 33 34 32 30 28 28 27 27 26 24 25
22 19 21 23 22 21 19 22 25 30 33 37 41 41 43 44 47 37 19 14 13 14 14 15 16 16 15 13 15 15 10 9 10 12 12 14 14 2 6 13 15 20 26 27 25 25 25 26 26 24 24 25 26 26
26 23 22 23 24 22 21 23 24 27 34 34 38 41 42 42 42 42 34 23 22 19 19 19 19 18 16 15 14 14 10 8 5 8 5 5 3 1 1 5 11 12 13 14 16 16 17 19 21 22 25 27 29 31
28 25 25 25 25 23 23 26 24 24 29 33 35 40 38 40 40 41 36 39 28 26 24 22 22 21 19 17 15 16 15 10 8 9 11 8 6 3 1 3 7 10 12 14 15 17 19 21 21 22 23 26 28 30
31 29 29 29 26 26 24 25 26 23 25 30 33 36 37 36 31 34 31 33 27 28 29 26 27 22 23 23 21 18 17 17 11 10 9 8 8 8 11 11 10 12 15 16 16 17 18 18 18 19 19 20 22 21
35 34 33 32 32 30 29 28 29 26 28 30 32 36 35 32 32 30 28 27 27 28 30 29 26 26 25 20 24 23 20 19 17 15 15 13 9 11 11 11 11 11 12 16 17 16 14 15 17 17 16 16 18 18
36 34 35 34 34 35 31 31 34 32 31 31 31 35 33 28 29 30 28 26 26 27 29 30 27 24 23 24 21 17 24 25 25 24 22 19 14 10 6 9 15 9 7 6 9 11 14 15 17 17 15 16 19 20
42 37 37 39 38 40 37 35 39 36 34 34 33 34 33 31 32 33 33 33 29 27 29 31 28 25 27 25 25 26 26 30 33 29 27 25 22 20 17 16 15 11 9 10 10 11 15 18 18 18 18 16 12 10
43 41 41 40 41 42 41 41 42 40 39 38 35 33 33 35 36 36 37 38 36 36 33 31 32 28 28 27 28 28 30 29 28 32 31 30 28 26 24 24 22 21 19 20 18 18 18 18 18 19 19 18 15 14
44 43 42 42 45 46 46 46 45 43 41 39 36 36 38 40 39 39 41 42 45 45 40 36 35 30 28 26 28 28 31 31 31 31 33 35 34 31 30 26 25 26 24 23 24 24 23 22 22 22 23 23 23 22
45 43 44 47 49 47 47 47 43 40 40 38 38 41 44 44 44 46 46 52 56 50 48 42 38 33 27 24 27 29 30 33 33 32 32 35 39 39 37 35 33 31 30 28 26 26 26 25 25 26 27 28 30 31
44 45 47 49 47 45 47 49 45 45 46 45 47 48 49 49 48 53 60 63 57 49 48 45 39 37 31 26 25 30 31 32 32 32 32 37 37 38 37 40 39 36 36 35 33 32 31 30 29 30 31 32 34 35
46 45 43 44 47 49 50 49 49 50 52 52 52 54 56 59 60 59 58 51 42 34 38 37 36 35 33 30 27 29 32 30 29 33 33 34 38 40 40 39 38 41 42 40 39 38 38 37 36 35 36 37 39 39
42 45 47 50 50 51 52 53 53 54 57 60 60 60 56 54 53 49 45 34 27 31 34 31 31 30 30 29 28 27 27 28 29 31 33 33 36 39 41 39 38 39 41 44 46 45 42 41 41 39 39 37 32 28
48 51 54 56 57 56 57 59 59 60 60 56 53 51 50 46 42 41 34 27 32 30 26 23 21 23 26 25 26 25 25 26 24 25 27 28 30 32 32 34 37 35 35 37 39 39 41 44 41 38 33 28 26 26
53 57 60 60 61 62 58 56 54 52 49 46 45 41 34 33 31 30 24 27 26 22 21 20 20 22 23 24 23 22 22 21 20 21 23 26 27 27 29 30 28 29 31 32 33 34 33 32 32 32 31 31 31 31
59 60 59 58 54 52 49 46 39 35 32 30 29 30 31 31 28 25 26 28 27 23 21 22 21 23 24 25 21 19 20 19 17 18 19 22 24 25 26 28 28 29 27 26 27 28 29 30 32 33 33 34 35 35
58 52 44 42 40 34 26 24 25 26 27 30 31 29 30 27 25 25 24 24 28 29 29 28 27 25 25 23 22 19 18 18 17 17 17 19 21 22 24 27 29 32 34 34 33 34 35 35 35 35 36 37 37 38
38 33 28 22 20 21 22 23 25 26 29 31 30 28 28 26 25 24 24 23 23 24 24 25 25 25 22 21 21 20 16 17 18 17 18 19 20 22 23 24 26 27 29 30 31 32 32 33 34 35 35 36 38 39
14 16 18 18 22 22 21 26 26 28 28 24 22 22 21 21 22 25 22 21 22 23 24 19 21 21 17 16 17 21 22 16 17 18 18 19 20 22 23 23 25 26 27 29 30 31 31 32 33 34 35 37 40 41
11 15 17 19 19 20 22 25 26 27 25 25 25 26 24 22 18 19 18 19 23 24 21 19 22 17 9 9 12 17 21 21 18 16 18 18 19 20 21 22 23 24 25 26 28 29 31 33 35 37 39 41 43 44
16 18 19 20 18 22 26 30 35 38 37 36 33 31 30 30 26 19 21 21 22 23 20 20 25 21 16 12 12 14 18 21 22 20 19 19 20 20 21 22 23 24 26 28 30 32 34 37 38 40 41 43 45 47
17 19 19 22 26 29 32 35 39 45 48 47 43 41 40 41 36 27 22 23 26 25 23 22 25 23 20 17 14 15 17 20 23 24 25 24 24 24 24 24 26 28 30 33 34 36 37 39 42 45 47 50 54 56

GFSWCAN_500_spd_039.txt.gz
Wind_Speed
33 27 29 28 32 36 43 46 49 50 50 51 51 49 51 44 33 32 29 22 16 16 19 22 24 29 35 31 28 24 26 24 23 23 21 20 19 15 13 12 13 12 12 13 14 13 12 13 12 11 8 10 13 12
33 22 22 26 28 32 36 40 44 48 49 54 53 48 49 38 28 28 30 26 20 20 18 20 23 21 27 39 34 30 28 25 22 21 20 21 20 20 20 18 16 15 15 14 14 15 15 14 15 14 15 14 14 13
26 18 21 24 25 27 31 37 40 45 51 55 52 48 49 37 26 27 29 25 20 15 14 19 18 22 19 24 36 29 28 26 23 21 22 22 21 22 23 22 26 21 20 17 16 17 18 18 17 17 17 17 16 16
23 16 18 19 20 23 27 32 37 43 49 52 53 48 48 36 26 26 28 25 21 15 11 11 14 17 17 16 24 30 33 26 24 26 26 27 27 28 25 26 30 27 28 23 20 19 19 19 18 17 18 20 20 21
18 17 17 15 17 21 22 28 32 36 44 47 50 47 46 36 24 26 26 23 16 12 7 5 10 12 13 15 18 24 27 27 26 26 27 28 29 33 33 32 34 31 29 30 27 31 25 21 19 18 17 16 16 18
17 16 15 13 15 16 19 21 26 30 40 41 42 40 41 37 23 24 26 21 13 12 7 3 4 7 11 12 13 18 22 25 20 15 10 15 22 30 35 38 38 37 37 36 35 36 32 29 28 23 23 22 21 20
16 15 14 12 14 14 15 17 21 28 36 42 45 45 38 48 27 21 25 20 11 6 7 8 8 9 11 12 11 9 8 3 7 10 14 21 28 35 40 41 43 45 46 44 40 41 36 32 31 32 30 30 29 28
17 13 12 12 11 11 12 16 20 25 31 38 42 46 48 50 44 18 20 19 10 7 2 5 6 1 3 4 4 5 7 6 8 11 17 20 21 29 30 38 45 51 50 48 46 41 41 37 32 29 26 26 26 27
13 14 14 14 11 12 12 14 19 24 27 32 37 40 44 49 52 32 19 18 12 12 13 10 5 8 9 10 10 10 11 11 12 14 17 14 23 34 46 46 32 50 48 42 42 43 44 38 35 29 26 24 22 22
15 17 18 16 13 13 13 12 16 22 23 27 33 36 40 45 44 44 34 19 18 13 13 13 13 13 12 13 16 15 12 12 16 16 13 13 21 26 34 32 16 23 31 30 30 35 41 39 35 30 28 26 25 24
20 20 20 18 16 14 15 14 13 16 21 25 28 32 37 39 38 39 43 46 28 19 15 16 17 16 17 16 16 15 13 11 12 10 9 10 18 21 17 4 12 12 13 19 21 26 31 38 33 31 29 28 27 26
20 24 24 22 18 16 16 16 17 16 20 25 26 29 32 38 38 38 39 40 39 42 29 23 21 20 19 18 18 16 13 11 12 12 7 11 13 14 16 12 8 9 16 15 17 23 26 31 29 28 27 27 27 27
21 25 26 24 23 19 17 19 20 20 20 24 26 27 30 33 32 34 38 37 35 37 37 40 21 22 21 21 18 17 14 9 10 12 11 12 12 11 10 8 4 4 9 17 19 16 25 30 26 23 23 24 25 27
24 26 26 25 27 22 20 20 23 24 23 25 26 28 28 32 32 32 32 35 35 34 35 36 37 22 21 21 20 18 15 11 10 11 10 11 11 11 6 4 4 4 9 13 16 18 17 18 19 19 19 22 25 26
24 26 28 26 28 26 25 24 25 27 26 27 27 29 29 29 27 28 29 32 33 33 32 36 36 30 24 20 20 18 16 11 11 15 13 10 12 11 10 11 11 10 11 13 14 14 15 15 16 17 18 20 21 22
27 29 28 27 25 29 28 26 26 28 28 28 28 32 33 32 30 30 30 31 33 32 32 31 32 29 29 23 18 16 9 21 17 20 21 19 14 13 11 11 11 12 12 13 14 16 17 17 17 17 16 17 17 17
30 33 33 30 24 26 27 28 28 28 29 33 34 35 36 35 34 32 31 31 32 31 32 32 28 28 28 27 24 21 23 23 26 31 29 25 23 22 17 7 5 12 14 11 10 12 14 13 12 16 17 16 15 17
33 35 35 30 26 23 25 30 29 30 32 34 37 38 38 38 36 35 33 33 33 36 38 34 31 27 32 35 29 29 27 30 32 30 32 31 28 25 23 20 13 9 11 11 13 13 14 14 14 18 20 19 17 19
38 40 39 33 30 27 29 34 34 36 39 38 40 41 39 37 36 36 35 34 37 40 43 40 38 35 37 40 38 33 32 30 32 36 34 29 32 32 28 26 25 23 19 18 19 19 18 19 21 23 21 20 21 21
41 42 44 39 35 33 35 38 40 42 43 43 42 39 37 35 37 38 38 42 44 45 43 44 44 48 52 48 41 38 33 32 30 29 31 32 30 34 35 32 30 30 29 28 26 25 26 26 26 25 24 24 22 23
46 48 47 42 38 37 39 42 45 45 46 46 41 37 36 37 39 42 46 49 50 47 49 53 55 58 55 46 39 38 34 31 30 30 28 31 34 31 39 39 36 34 32 31 30 29 29 28 29 28 27 27 26 25
48 46 42 41 40 42 43 46 47 47 47 46 43 42 43 44 45 48 51 53 53 54 57 57 54 47 38 33 31 31 31 33 29 28 29 29 32 36 35 37 40 42 40 38 37 36 34 33 31 31 30 30 30 30
46 44 44 45 44 46 48 50 48 46 45 45 44 45 49 51 54 56 58 59 55 51 53 47 40 33 27 24 24 25 27 31 32 29 27 28 28 34 37 36 38 39 40 41 43 44 40 37 37 37 36 36 35 36
46 45 45 48 49 52 52 50 47 45 47 49 52 54 58 61 61 62 62 56 45 44 40 32 29 27 26 26 23 24 26 27 28 27 25 27 30 31 35 38 36 37 40 41 39 40 42 44 44 43 41 41 42 41
46 46 49 50 51 49 45 46 48 52 55 58 60 63 63 63 63 61 53 34 31 30 26 26 28 24 24 23 22 23 23 24 25 24 25 25 25 27 29 32 35 36 37 38 39 39 40 39 41 42 43 45 47 46
48 48 48 47 47 48 51 53 54 57 59 60 59 59 57 56 53 45 27 25 25 27 24 20 20 21 20 21 22 22 21 22 23 22 21 21 22 23 25 27 28 31 33 33 33 35 36 35 36 37 37 37 38 38
46 46 46 48 51 54 54 55 57 58 56 54 53 46 40 39 33 25 23 22 22 22 21 19 19 20 21 23 23 22 22 21 21 21 21 20 20 20 22 24 26 28 30 30 30 30 31 31 31 31 33 32 32 32
46 46 49 51 51 48 48 50 50 47 39 33 30 29 30 26 23 23 25 25 24 22 21 21 22 25 25 24 24 22 21 23 22 20 20 20 19 18 20 21 23 25 27 29 31 30 30 30 29 29 30 32 33 33
48 47 46 43 38 38 39 34 26 22 24 27 29 28 28 26 23 23 23 23 23 21 21 21 20 24 25 31 31 25 21 22 23 21 19 20 21 21 19 19 20 21 23 25 27 29 31 32 33 34 35 36 36 37
44 41 36 31 28 22 17 23 23 24 27 28 28 23 15 14 16 17 17 18 18 19 19 21 19 19 21 22 21 17 20 21 24 22 17 17 19 21 21 20 21 21 22 24 25 27 28 29 31 31 32 33 34 35
27 26 23 21 18 16 20 22 24 24 25 25 27 29 28 26 20 18 18 19 21 22 21 21 18 18 15 16 15 14 15 15 17 20 20 18 16 18 21 22 22 22 23 25 26 27 28 29 30 31 32 34 35 36
17 17 15 15 15 18 22 23 21 21 23 26 31 36 38 42 42 32 25 27 29 28 29 27 22 17 13 16 18 14 8 8 12 16 19 20 20 20 20 21 22 22 23 24 25 26 28 29 31 33 35 37 39 41
17 16 15 15 18 22 26 30 29 28 26 30 39 30 28 32 24 25 30 34 35 34 32 32 26 21 14 17 21 19 17 13 12 14 17 20 23 24 24 25 25 27 29 29 30 30 32 33 35 37 39 41 43 46

GFSWCAN_500_spd_042.txt.gz
Wind_Speed
43 42 41 35 35 33 34 32 33 34 36 40 44 47 51 52 51 54 53 37 26 21 16 13 12 22 20 29 26 23 23 20 19 19 17 17 16 15 13 13 14 13 13 15 16 15 13 12 13 14 13 13 13 14
44 40 34 35 29 29 29 27 27 30 34 40 42 43 49 56 55 54 45 32 27 22 15 13 16 16 24 21 31 27 26 23 20 19 17 16 14 15 16 17 17 16 16 15 15 16 16 16 17 16 15 13 13 15
43 37 30 31 25 20 21 23 21 23 27 34 39 42 47 51 53 49 39 27 24 19 15 12 10 16 20 21 22 33 31 29 26 23 20 17 17 16 15 17 19 21 23 18 18 18 18 18 19 20 19 19 19 16
38 30 31 26 17 15 16 17 18 22 26 30 34 35 40 46 48 45 36 24 22 19 14 10 6 10 16 19 16 20 29 34 29 27 24 19 19 20 19 23 23 23 24 23 24 21 23 21 21 21 20 21 20 19
31 32 29 21 14 12 12 15 15 19 24 29 35 38 43 43 42 36 32 27 22 17 13 8 6 3 11 15 14 16 21 24 28 30 26 22 24 25 20 22 19 23 27 30 26 31 32 27 24 22 22 23 22 22
35 32 25 17 14 10 8 12 13 16 21 27 32 34 38 36 37 32 28 27 23 19 16 13 8 3 8 10 11 13 16 20 23 23 22 16 9 15 17 20 24 28 31 34 34 36 38 35 32 28 26 24 22 21
35 27 23 18 14 8 8 9 9 12 16 23 28 33 36 36 33 30 23 23 19 14 13 8 7 6 4 4 6 8 8 9 10 9 5 8 12 16 19 27 31 35 34 40 42 39 40 39 34 35 34 30 27 26
30 27 25 18 15 10 10 8 7 9 12 16 24 29 33 35 37 31 25 21 17 16 13 13 9 8 8 2 2 3 3 3 3 7 12 14 14 18 25 30 31 39 50 48 44 47 44 44 41 40 36 35 33 32
29 29 24 20 17 13 11 10 5 5 9 13 18 22 29 32 34 34 36 40 25 16 16 14 12 11 11 9 10 10 9 9 10 12 13 15 20 22 27 29 30 39 42 45 44 51 49 49 43 42 38 34 33 31
34 28 24 22 19 17 13 13 9 6 6 11 15 18 21 26 28 33 33 32 35 37 24 19 19 17 15 14 14 12 13 13 14 17 19 20 18 20 20 20 23 19 8 8 13 20 39 39 37 41 40 36 33 32
32 27 26 23 20 18 16 16 14 10 7 8 12 14 17 20 22 25 31 31 31 31 33 38 30 19 19 18 16 15 13 13 15 14 15 14 13 12 12 18 17 18 17 11 12 16 20 30 30 31 38 36 33 32
32 29 26 22 22 20 21 17 17 14 12 10 11 13 15 17 20 24 25 29 32 31 29 29 33 39 25 18 18 18 16 14 15 15 12 11 15 14 11 13 12 15 14 12 9 7 10 14 21 23 32 33 32 32
32 28 28 27 24 20 20 22 21 20 18 15 13 13 15 17 20 22 23 24 24 29 30 30 33 33 36 27 16 16 14 14 14 13 9 13 13 14 11 11 10 10 13 13 13 15 12 16 16 19 30 29 27 30
34 31 30 27 25 18 18 21 25 25 24 21 19 19 19 21 21 22 21 23 22 25 28 28 29 33 32 33 25 14 14 14 15 14 17 15 14 15 14 12 11 10 8 5 13 13 15 13 18 24 21 20 20 21
37 35 32 29 25 20 19 20 22 27 30 28 25 26 25 25 25 25 25 25 25 24 26 26 24 25 28 30 29 25 14 10 17 23 25 22 22 17 16 15 16 16 13 12 15 12 11 18 18 18 19 21 22 22
40 37 31 27 24 22 22 22 25 25 28 30 31 30 29 29 30 30 30 29 29 28 27 29 28 23 25 29 30 24 26 25 32 28 28 27 26 25 20 16 16 18 16 14 15 16 17 17 14 14 15 17 18 19
39 33 32 31 28 26 25 27 25 25 28 29 33 34 35 33 33 33 34 34 33 31 31 29 29 30 27 30 34 33 27 27 28 39 43 36 34 34 27 24 21 16 20 16 14 16 18 16 14 13 13 14 15 14
33 32 33 32 29 26 25 25 26 24 25 29 31 33 36 37 36 36 35 34 33 34 34 32 31 32 35 36 38 41 38 38 35 34 37 43 44 35 37 31 27 25 21 17 18 17 18 17 20 19 21 17 15 17
35 34 33 31 29 27 26 27 26 28 30 33 35 36 37 38 38 38 34 33 35 36 36 35 37 39 43 45 47 45 44 48 46 40 38 40 43 45 40 38 37 27 29 24 20 23 21 22 26 26 22 21 23 21
33 31 30 30 29 29 31 30 31 33 36 38 38 39 41 41 41 38 36 38 39 40 40 40 42 46 50 52 55 54 52 49 47 42 36 36 37 38 42 42 37 37 32 32 32 27 28 28 28 29 27 27 27 26
31 31 31 31 32 31 32 33 37 41 42 42 42 42 42 42 40 39 40 42 44 44 44 45 51 54 56 58 56 53 47 40 38 36 33 33 32 31 35 41 39 38 38 37 36 37 36 34 33 32 32 31 31 30
34 33 33 34 34 35 36 40 45 46 46 46 46 45 44 44 43 43 46 47 49 50 51 55 60 63 59 52 47 37 28 28 29 28 28 29 31 27 29 35 41 36 42 43 41 38 37 38 39 38 36 34 32 31
38 36 36 37 37 38 42 45 47 47 47 46 47 49 50 47 47 49 51 53 53 57 61 63 61 54 43 37 32 24 23 25 24 25 25 23 27 27 25 29 34 40 38 44 47 45 42 39 39 39 39 38 36 35
37 37 40 41 41 45 45 47 49 48 48 48 49 50 51 52 53 54 56 56 57 63 63 58 48 36 31 29 25 23 25 25 25 24 25 22 24 27 25 25 29 33 39 42 41 40 43 46 47 47 46 45 43 41
40 43 43 43 43 45 45 44 46 49 49 50 50 53 55 57 59 61 58 57 58 52 46 36 30 26 22 21 20 21 23 24 24 22 22 23 22 22 23 25 26 29 31 36 41 40 41 43 43 43 43 43 43 44
42 44 44 43 44 43 44 45 47 48 50 51 54 58 59 60 61 59 49 43 37 31 28 24 23 23 23 21 21 17 19 23 23 23 21 24 24 21 22 24 25 25 26 30 34 38 39 39 41 43 43 44 44 45
43 43 42 41 40 42 44 45 49 51 52 57 59 59 59 58 49 36 29 26 25 23 22 24 23 23 22 24 25 23 23 24 23 23 19 21 24 22 22 22 22 23 23 25 28 32 34 35 36 38 39 39 39 40
39 38 37 40 42 45 47 49 51 55 59 59 59 53 48 36 27 23 23 26 25 24 23 24 25 26 25 25 25 24 22 23 21 20 19 20 24 23 21 21 21 21 22 23 24 26 28 30 33 35 36 36 36 36
36 38 41 42 45 49 50 50 52 55 55 52 44 34 26 23 18 19 20 19 19 21 21 23 23 27 24 22 22 23 26 27 21 19 21 20 23 23 20 21 23 21 20 21 22 23 25 27 29 31 33 35 35 35
38 41 43 45 48 50 47 46 45 43 38 32 26 22 20 17 18 21 22 25 25 23 22 22 20 21 20 21 18 18 23 28 27 23 21 21 22 22 18 18 20 22 23 23 23 24 25 26 27 28 30 32 33 34
42 45 47 49 49 47 45 43 41 33 24 21 22 20 20 22 22 28 32 35 37 36 31 26 24 24 22 20 17 16 14 16 13 13 14 16 18 22 23 19 16 16 19 22 24 25 26 27 28 29 30 31 32 33
41 43 42 41 36 32 30 24 20 20 19 20 20 23 27 31 32 37 35 35 37 36 40 36 30 28 27 23 17 12 14 15 12 9 8 11 14 19 22 23 23 22 20 19 19 21 22 24 26 27 29 30 32 33
33 32 30 25 22 20 22 23 22 23 23 25 27 35 37 37 39 39 36 34 32 31 32 34 33 30 31 24 18 12 16 17 16 15 13 12 13 17 19 23 25 27 28 27 26 27 28 30 31 32 34 35 36 37

GFSWCAN_500_spd_045.txt.gz
Wind_Speed
40 34 38 42 40 33 39 35 35 35 35 34 36 37 36 38 43 50 52 45 47 37 27 19 15 13 14 22 21 24 24 22 20 18 16 14 12 12 12 12 14 14 14 14 16 16 15 14 14 15 17 15 13 14
44 49 49 46 44 42 42 38 34 34 32 31 32 34 34 36 42 45 50 44 44 33 24 20 15 12 13 19 18 26 24 22 22 21 18 16 14 13 16 17 18 16 15 14 16 15 16 16 16 16 15 16 14 14
55 57 50 51 51 44 40 38 30 29 27 27 27 26 31 33 37 44 46 41 39 29 21 18 15 9 11 14 20 19 27 25 22 22 20 18 17 15 16 16 15 17 20 19 19 17 19 18 19 20 20 17 19 15
58 58 54 53 50 40 36 35 23 20 21 21 22 25 25 30 36 38 42 38 33 25 21 17 14 11 9 13 16 18 20 28 28 27 25 24 23 18 17 14 14 21 23 24 22 24 27 23 23 23 22 22 22 20
57 62 58 48 43 38 34 29 15 15 14 15 17 19 24 28 32 34 35 35 32 25 19 17 13 7 6 6 11 15 15 17 23 29 31 30 24 23 19 19 20 24 21 24 21 28 28 28 30 26 24 26 25 25
56 57 60 49 42 32 29 22 12 10 9 9 13 18 22 25 30 29 25 30 30 24 22 18 16 13 7 7 10 15 19 17 18 21 24 25 30 26 19 15 18 15 20 24 24 24 29 28 35 33 31 28 28 28
62 62 50 46 36 26 25 18 12 7 4 5 10 18 20 25 30 31 26 26 27 22 19 16 15 13 12 10 6 5 6 6 9 11 15 16 15 14 16 19 19 21 25 30 33 33 33 35 36 39 38 36 32 30
68 58 51 41 28 28 23 18 13 10 5 3 7 12 15 21 26 28 27 20 24 23 21 16 15 13 12 9 8 6 5 5 4 7 9 9 11 17 20 23 25 27 31 34 35 41 44 45 45 44 44 43 40 37
69 63 48 34 31 30 25 21 16 14 10 5 3 8 11 14 19 22 24 24 22 21 18 23 21 14 13 12 12 12 11 11 9 10 12 13 16 18 21 22 26 30 31 32 38 44 44 43 46 49 49 48 45 41
65 54 41 33 33 31 25 23 19 17 15 12 6 5 8 10 11 15 18 21 20 21 22 23 20 28 25 16 15 13 14 14 15 15 17 19 21 21 22 22 23 25 21 22 21 29 27 21 25 50 48 52 48 44
55 42 38 36 32 28 27 24 22 19 20 17 12 9 7 6 9 10 10 13 16 19 19 18 23 23 23 29 20 16 15 14 15 17 19 19 22 22 23 22 21 21 21 20 20 22 26 19 14 22 34 28 34 43
46 44 37 34 32 30 28 27 24 22 22 21 19 15 13 11 10 11 10 10 11 14 17 17 17 19 21 25 32 18 13 13 13 16 18 20 22 23 25 23 21 19 17 16 20 16 7 5 5 12 20 25 25 26
45 35 35 32 33 31 29 27 28 26 23 21 21 20 18 17 16 16 15 16 14 14 15 19 20 19 19 21 25 27 22 12 14 16 18 18 21 21 22 21 19 19 16 15 16 17 11 9 9 10 14 19 22 22
42 44 35 34 32 29 28 27 27 29 30 27 24 23 21 21 21 21 20 22 22 20 18 20 21 20 19 21 21 23 25 26 16 14 20 26 28 29 28 27 23 21 20 16 12 15 16 16 18 13 14 6 15 22
49 39 36 34 32 28 28 25 27 29 29 30 29 27 24 24 24 24 24 24 27 26 25 24 23 22 21 19 20 24 23 25 26 22 22 26 33 40 39 34 31 24 23 21 17 16 16 23 22 15 13 19 21 20
45 39 34 31 32 31 28 29 29 26 29 30 30 28 28 29 30 30 28 27 30 31 31 31 29 27 25 23 23 24 25 28 29 30 31 33 34 35 45 38 32 31 23 22 19 21 24 19 14 17 19 14 15 17
35 35 34 33 35 35 31 31 31 28 27 28 28 29 32 31 30 31 31 32 32 35 37 37 35 30 28 29 32 35 35 34 31 35 41 40 41 40 45 49 45 40 33 26 22 21 22 22 22 21 21 15 15 16
41 42 42 39 41 35 33 34 35 32 29 29 31 32 34 32 31 32 34 35 36 41 43 41 38 35 33 33 38 43 45 44 44 44 46 49 51 50 47 46 46 47 40 35 30 23 24 26 23 26 29 21 19 16
44 46 45 44 40 37 36 35 34 32 30 28 30 36 40 36 34 34 35 37 41 45 46 45 42 39 38 43 46 48 51 54 53 52 53 54 56 53 50 47 43 44 46 38 36 34 24 28 27 26 29 29 25 27
51 47 43 41 37 35 34 35 31 33 32 29 32 37 39 37 38 40 41 43 46 47 47 44 43 45 49 52 56 57 58 58 56 56 53 54 52 49 47 45 42 37 41 44 39 38 31 28 32 32 28 32 33 30
45 44 44 38 35 36 36 34 33 33 31 32 35 37 36 38 40 42 45 47 48 47 46 46 50 53 56 58 60 63 60 56 54 53 47 38 37 35 34 35 33 31 34 38 42 40 39 32 32 35 34 33 33 34
42 44 41 38 38 35 36 37 36 35 36 38 41 41 40 40 41 44 47 49 49 45 47 53 57 59 60 63 64 61 55 48 44 37 30 25 22 21 24 28 29 28 29 32 38 42 43 41 37 35 37 38 37 36
48 45 41 39 39 40 43 38 36 38 41 43 44 42 40 40 43 47 51 51 47 51 57 60 61 63 66 65 56 45 38 33 26 24 25 22 18 19 24 23 24 27 26 30 32 40 42 46 44 41 39 38 39 40
43 43 44 43 43 43 40 39 41 43 44 43 44 43 42 45 48 51 51 50 55 60 62 65 65 61 56 47 36 30 28 22 22 23 24 23 23 24 25 23 21 23 23 25 31 34 41 43 48 46 44 43 41 42
47 45 44 43 41 40 40 42 44 45 45 45 44 45 47 50 52 53 54 59 63 66 66 60 54 45 35 29 27 26 24 20 19 16 15 20 25 26 24 23 22 22 20 21 26 31 34 40 42 44 49 49 48 47
43 43 42 41 40 41 43 43 42 43 44 46 46 47 49 52 54 57 62 65 66 60 51 41 34 30 26 26 26 25 24 26 26 21 21 22 24 26 21 19 20 22 18 18 22 27 31 34 38 42 43 43 44 44
45 43 42 43 43 43 42 41 42 44 45 45 46 49 53 56 57 60 59 52 45 41 31 28 27 28 29 28 28 27 25 28 26 27 28 23 23 26 20 18 16 20 20 19 19 22 25 28 31 35 41 44 44 44
44 42 41 42 41 40 40 42 43 43 43 46 50 54 57 58 56 48 42 37 27 22 21 21 23 26 26 26 25 25 23 23 25 27 25 21 19 24 22 22 18 20 21 20 18 19 22 24 25 27 30 33 36 37
39 37 36 38 41 41 40 40 41 44 48 52 54 56 55 52 41 30 25 23 24 24 25 26 26 30 28 25 23 21 21 23 22 24 27 25 21 22 20 19 18 20 19 20 20 20 19 21 23 25 27 28 30 33
36 39 38 38 37 37 39 42 45 49 51 53 54 51 46 29 23 21 20 25 30 31 31 32 34 35 34 30 22 19 22 25 24 21 22 23 23 23 24 22 19 18 18 19 20 21 21 22 22 23 25 26 28 29
35 35 35 36 38 41 43 45 46 48 49 50 46 35 22 18 15 17 25 36 39 39 42 43 44 40 40 35 31 23 19 22 25 26 16 15 19 19 19 20 18 20 20 18 16 17 19 22 22 23 24 25 26 28
36 37 37 38 40 43 46 47 48 45 38 30 20 19 19 23 21 23 32 40 42 44 42 38 38 35 33 24 25 25 21 21 21 20 14 12 10 9 12 15 17 20 22 24 24 24 22 19 19 20 22 23 24 25
33 36 40 41 43 42 41 40 35 26 20 19 19 21 25 31 33 33 38 42 46 46 41 35 34 28 26 20 21 24 23 22 19 18 17 15 13 13 13 15 18 22 24 25 26 29 31 32 32 31 30 31 31 32

GFSWCAN_500_spd_051.txt.gz
Wind_Speed
50 54 54 41 35 35 34 31 29 20 17 15 22 24 17 23 18 18 20 23 27 30 30 35 32 27 20 7 5 15 21 21 20 20 19 16 14 13 13 14 13 13 13 15 15 15 17 16 17 17 17 18 16 18
48 54 52 47 37 36 31 32 29 27 25 23 27 26 14 20 18 16 16 21 24 27 29 31 28 26 21 12 5 11 18 22 23 22 20 20 17 15 16 16 18 19 18 17 17 17 18 17 18 19 19 20 19 18
55 52 56 49 38 37 32 39 35 34 34 33 39 25 17 16 13 12 13 17 20 25 25 31 25 25 22 18 10 6 15 18 22 24 24 23 22 21 19 19 21 22 24 23 22 21 21 21 21 22 21 21 22 21
46 57 51 42 35 36 36 40 41 36 36 36 36 19 14 11 7 7 9 13 16 19 24 23 24 23 23 17 14 13 10 14 16 17 25 26 27 26 24 24 25 23 22 22 22 22 21 23 28 28 26 26 23 23
53 47 53 45 38 34 37 39 39 38 33 35 29 23 14 6 4 5 7 10 14 17 19 19 20 24 24 21 17 14 12 10 15 14 15 22 29 28 29 29 29 27 26 25 22 24 22 24 27 28 27 28 28 25
44 43 54 41 38 36 37 39 36 34 34 39 33 24 13 3 3 4 5 6 10 13 19 15 13 19 22 23 18 11 11 9 13 16 16 19 21 26 32 32 32 31 30 30 24 26 26 25 24 25 25 29 29 28
50 45 51 44 43 37 36 37 38 38 39 39 32 18 9 6 5 3 2 6 8 12 17 17 14 13 20 23 24 21 14 12 10 12 13 13 13 17 19 21 24 27 29 31 31 24 25 27 24 27 28 29 29 29
48 40 46 43 43 41 38 35 39 35 38 38 27 18 11 9 4 4 4 6 9 12 14 16 18 16 20 17 19 24 17 13 13 13 14 12 9 8 9 9 12 15 16 20 22 23 25 28 28 25 26 29 30 34
50 44 43 40 41 38 34 35 35 37 38 33 24 18 14 8 6 6 6 6 9 11 11 14 17 17 19 20 17 22 21 23 18 13 15 15 15 15 17 17 16 18 20 20 24 27 27 28 28 27 29 30 32 34
51 51 45 45 47 38 36 36 38 40 34 29 25 19 15 10 9 10 8 7 9 10 12 13 14 14 18 17 15 17 17 17 23 18 18 18 17 17 19 21 23 23 24 25 25 26 29 31 33 33 31 31 35 36
51 52 49 45 39 40 36 41 41 36 32 31 24 21 17 14 15 14 13 12 11 11 12 13 14 14 16 17 16 15 15 16 17 18 19 20 20 21 23 26 27 28 29 30 31 31 30 30 30 32 31 32 30 31
59 55 44 47 47 43 42 43 41 35 36 26 26 24 19 19 21 20 18 17 17 17 18 17 17 15 16 17 17 16 17 17 17 14 15 15 19 21 22 26 29 31 33 34 33 33 33 31 29 31 29 25 22 23
52 52 53 53 51 50 50 47 40 41 33 28 30 26 22 24 24 25 24 22 24 25 26 25 23 23 23 21 19 18 18 19 20 19 17 19 19 21 22 24 29 33 34 30 28 28 32 35 34 30 30 23 21 23
52 47 50 44 47 52 50 41 45 42 31 33 31 28 25 24 24 26 27 27 27 28 30 31 30 29 29 28 27 26 26 25 26 27 27 27 28 30 33 35 35 36 42 44 43 41 37 39 38 37 34 31 28 22
54 48 46 48 54 47 46 48 45 36 33 32 30 28 26 26 27 28 29 30 32 34 35 37 36 35 35 33 31 31 31 30 31 32 31 31 33 35 37 41 45 48 44 46 48 53 54 51 48 44 39 36 31 28
51 53 51 53 51 49 52 46 39 34 35 33 31 28 30 29 29 28 27 27 28 31 35 37 36 34 33 33 33 34 37 37 35 33 33 33 38 41 46 52 54 53 54 56 59 61 62 60 59 54 46 42 35 35
53 56 57 50 49 52 45 45 35 35 33 30 28 29 28 27 28 27 26 27 28 29 32 33 34 36 37 38 38 41 41 38 38 38 39 41 44 51 57 60 64 64 63 63 62 61 60 57 57 53 50 50 33 32
52 51 49 50 51 47 45 35 33 32 29 26 27 27 26 27 26 26 27 28 28 31 35 35 37 37 41 42 43 43 41 41 42 44 48 50 56 63 68 70 68 65 61 61 59 54 50 46 47 47 43 47 41 31
49 47 47 50 48 43 36 33 30 29 25 24 24 26 28 28 28 29 31 32 32 33 37 38 40 41 42 41 40 41 41 43 46 50 54 61 65 68 72 66 55 50 48 40 34 28 25 27 28 31 37 43 40 30
49 47 49 49 43 37 32 28 23 24 20 18 20 23 25 27 29 32 33 33 33 37 40 41 41 40 40 41 42 43 44 49 54 57 59 64 68 68 63 52 43 39 28 19 17 20 20 21 22 21 29 35 36 28
46 48 49 45 37 31 29 24 27 24 21 21 23 26 28 30 32 33 34 34 36 41 42 43 43 43 43 43 44 46 50 54 59 62 65 65 63 56 40 36 34 29 20 16 18 22 24 23 19 19 25 28 35 27
48 48 50 41 38 35 32 30 29 25 25 27 30 31 31 33 36 37 39 39 41 44 45 45 44 44 43 44 47 50 53 58 63 64 62 57 44 35 30 30 28 24 25 23 20 20 22 21 18 19 21 27 30 27
50 47 39 37 36 32 29 26 25 27 30 31 32 33 33 36 40 41 42 42 45 46 47 47 45 44 45 48 51 53 58 63 64 60 52 46 38 32 27 22 23 23 23 24 25 24 25 22 19 19 20 25 28 27
43 39 37 36 35 32 28 29 30 32 33 32 32 33 36 40 42 43 44 44 47 48 48 46 45 46 48 52 55 60 62 63 59 52 43 39 34 29 28 23 21 23 26 23 23 23 21 21 19 21 20 24 25 28
37 39 39 33 31 33 31 32 34 33 32 33 35 38 41 42 44 45 44 49 49 48 47 46 47 49 51 55 59 59 58 55 49 42 33 33 32 29 27 27 26 27 26 24 23 18 18 20 20 20 20 21 25 26
35 33 33 26 25 26 27 32 32 32 34 36 38 41 43 45 46 48 48 49 48 48 47 47 49 50 55 59 59 54 47 40 38 35 30 32 32 30 27 22 20 23 25 24 23 17 14 17 18 18 18 19 23 26
30 27 27 26 28 31 32 30 32 34 36 39 41 43 45 47 48 46 47 48 48 47 47 50 51 54 58 57 54 45 37 37 38 36 36 32 32 29 28 24 20 22 17 17 19 16 16 16 15 16 16 17 19 24
26 25 27 28 28 28 29 31 34 37 39 40 41 42 45 46 44 45 48 47 46 47 49 53 57 59 58 54 44 38 38 36 36 34 33 31 33 31 27 26 22 20 14 13 15 16 18 17 15 16 16 16 17 19
23 23 24 29 30 31 33 36 38 39 40 40 41 44 44 41 42 46 47 47 49 51 52 55 56 57 53 47 39 40 40 37 36 33 37 36 38 34 24 23 25 21 16 14 15 16 16 17 16 15 16 17 18 18
29 30 32 32 33 35 37 38 37 38 41 43 44 42 41 41 43 45 48 51 53 55 57 57 54 50 45 40 39 39 42 45 47 43 39 39 32 23 17 20 23 20 17 15 17 18 16 17 15 15 16 17 19 20
32 34 35 37 37 37 37 38 40 42 42 39 40 41 42 40 42 48 52 54 56 57 55 52 48 44 44 43 45 42 45 52 52 40 37 34 21 17 18 19 17 17 16 16 16 14 14 16 18 18 18 17 17 18
35 35 36 37 39 41 42 41 40 37 37 39 41 42 41 42 45 50 49 52 53 52 49 46 43 42 44 46 47 51 54 48 36 31 28 26 20 20 19 19 15 15 16 17 16 15 15 16 18 20 22 23 23 23
39 40 41 41 40 39 38 37 36 37 38 39 39 42 46 48 48 49 52 52 50 46 43 44 45 46 47 51 55 51 37 29 26 22 19 16 17 19 20 17 15 15 17 18 19 21 22 24 25 25 26 27 27 28

GFSWCAN_500_spd_054.txt.gz
Wind_Speed
63 64 62 57 53 45 45 37 34 30 23 18 13 8 7 9 7 8 9 10 11 13 15 19 20 25 26 20 10 5 16 18 16 18 18 20 18 18 17 16 15 13 13 13 15 17 20 18 17 19 19 19 18 19
66 65 58 53 49 45 40 37 38 32 23 23 20 17 16 23 15 4 5 10 6 8 14 17 16 19 25 22 15 8 6 14 17 19 20 20 19 19 19 19 19 17 16 16 16 17 19 19 18 18 19 19 21 22
66 62 59 61 53 40 45 37 37 33 28 27 21 21 19 17 12 9 4 7 5 7 11 13 12 16 20 24 21 13 6 7 13 18 21 21 20 20 21 22 22 22 21 19 20 21 22 24 24 24 21 21 22 23
69 61 55 52 50 45 45 33 36 27 26 27 25 19 17 16 13 7 6 5 3 4 8 7 10 14 18 21 25 18 9 8 9 18 15 18 23 24 26 28 28 27 27 25 23 22 20 24 26 26 25 26 25 25
70 68 61 51 54 44 48 40 35 29 24 25 24 21 20 19 16 10 10 6 4 1 2 4 6 11 15 19 24 23 17 11 10 11 13 11 13 20 27 30 31 31 31 30 28 27 24 24 27 27 26 27 27 25
68 64 47 42 48 46 41 38 34 31 26 25 22 20 18 19 11 14 9 9 5 4 1 1 4 9 12 17 21 24 21 14 9 9 11 14 15 18 18 21 27 33 34 33 32 32 30 30 29 30 28 27 29 31
73 66 52 46 47 45 40 38 29 27 21 23 21 18 18 18 13 14 10 10 8 6 3 2 2 5 10 10 15 21 25 25 16 9 9 11 11 12 12 12 15 17 19 20 20 20 25 31 32 32 32 30 32 35
71 60 53 48 44 43 40 38 32 29 21 18 20 19 17 17 14 14 14 13 9 7 6 3 3 7 10 12 11 9 16 20 22 22 16 12 12 12 12 13 12 14 16 16 18 19 19 21 25 27 29 30 33 35
69 63 54 48 50 46 40 31 37 28 24 22 20 19 19 17 20 18 16 14 10 8 6 4 6 8 11 13 12 9 7 16 11 17 17 16 14 10 13 15 16 18 19 21 23 26 27 28 27 28 29 33 32 33
65 58 52 51 49 42 41 37 32 30 25 25 23 21 20 23 22 19 16 13 13 10 7 8 10 11 13 15 15 14 11 10 14 9 12 11 12 13 12 14 17 19 21 23 26 28 30 33 35 35 35 34 36 36
63 56 52 46 46 46 40 35 35 29 24 24 23 24 23 23 24 20 18 15 14 12 11 13 14 16 16 18 20 19 17 13 14 14 15 13 12 13 15 17 16 16 17 19 23 28 32 36 38 40 40 39 37 36
60 51 47 40 46 38 35 34 34 24 26 25 24 27 26 27 24 22 20 17 16 16 16 18 20 22 22 23 23 23 23 20 20 21 21 19 22 19 19 21 21 24 27 29 32 33 37 39 40 38 38 38 37 37
61 53 50 45 39 38 35 36 34 33 32 30 27 30 28 27 26 22 20 18 19 20 22 22 25 26 27 29 30 30 31 29 29 27 24 24 27 29 30 31 33 35 38 39 40 41 44 46 44 46 43 37 35 36
59 51 48 45 41 38 35 38 35 40 38 30 31 28 32 27 22 20 19 17 18 20 23 26 29 30 32 35 35 36 37 34 34 33 31 30 30 31 32 34 37 41 44 45 48 51 51 53 56 57 53 51 53 47
62 60 51 48 45 44 38 41 44 46 41 36 32 31 29 22 21 21 19 17 19 22 25 25 26 27 29 31 32 35 36 36 37 35 35 34 35 36 38 40 43 46 48 52 57 60 62 64 62 60 61 61 59 57
53 50 48 47 50 45 42 37 42 43 45 35 30 29 25 23 23 21 19 19 17 20 23 24 25 25 26 29 30 32 34 35 36 36 36 35 38 41 43 46 49 54 60 63 67 70 71 69 65 66 67 66 62 58
61 55 52 53 46 42 42 42 45 44 36 28 30 29 26 26 25 21 18 13 14 19 23 23 25 26 29 31 33 34 35 34 34 36 37 38 40 44 49 54 59 63 68 73 72 64 57 55 50 47 47 50 55 55
56 58 53 44 45 43 42 42 39 33 31 30 30 27 26 27 25 20 14 14 17 22 24 26 27 29 33 34 37 37 37 36 36 38 39 42 47 51 57 62 66 68 70 62 51 42 36 31 29 27 29 32 33 36
52 49 53 47 42 42 38 33 32 34 32 29 27 27 28 26 21 18 15 16 19 24 27 28 30 33 35 37 39 38 38 38 37 38 43 48 53 58 63 66 65 61 48 40 33 27 21 20 22 20 21 23 25 24
48 51 52 50 46 40 33 35 29 33 31 25 25 26 25 18 14 14 15 17 22 27 30 32 34 37 38 40 41 41 41 41 40 43 45 52 60 64 65 62 55 44 38 32 23 24 20 20 24 25 23 21 18 21
52 53 52 48 43 37 35 34 34 31 27 24 24 22 17 14 14 16 18 20 25 30 32 34 37 39 40 43 44 43 43 44 46 47 48 55 61 63 58 51 42 37 31 26 22 21 24 24 24 25 24 20 16 17
51 47 43 38 38 37 37 36 30 27 23 23 22 18 17 18 19 20 22 25 31 34 35 38 39 42 45 46 46 45 47 49 50 52 57 59 59 54 45 39 35 31 25 23 23 23 24 26 29 30 27 18 16 16
39 38 36 38 39 38 36 34 29 24 19 19 18 16 17 19 22 25 27 30 35 36 39 40 43 46 47 47 47 48 48 48 53 58 59 56 52 46 41 36 33 30 25 22 24 25 27 27 25 24 21 17 15 16
44 42 42 43 43 41 36 30 22 20 19 16 15 16 18 23 25 28 29 32 37 38 40 43 45 47 47 48 48 48 49 51 55 56 51 51 44 41 38 36 35 30 29 24 26 28 28 22 20 20 19 16 17 17
46 48 46 40 36 37 27 24 22 19 17 18 19 21 24 27 29 30 31 34 38 40 43 45 46 46 46 47 48 51 54 56 55 48 39 42 43 43 40 37 36 32 28 26 24 28 27 22 18 18 18 17 18 18
38 34 30 29 28 24 22 19 17 20 22 23 25 26 28 30 32 33 34 38 41 43 45 46 46 45 46 47 48 52 55 55 47 38 36 39 39 39 40 34 31 30 28 27 28 26 24 24 18 15 14 16 16 17
30 23 21 22 23 20 22 21 19 21 23 25 28 30 31 34 36 37 39 41 43 46 48 48 47 47 46 48 51 53 53 49 43 40 38 39 41 43 42 41 33 30 30 26 24 21 21 20 18 17 15 14 14 15
22 17 17 18 20 22 26 26 26 26 28 30 31 33 35 37 40 42 43 44 46 47 46 48 48 47 49 52 53 53 51 47 43 41 41 42 43 49 49 45 40 41 30 24 19 18 18 17 17 16 15 14 14 14
28 28 26 23 23 23 24 25 27 31 32 31 33 36 39 41 44 45 47 47 47 47 47 46 48 52 54 57 58 56 51 47 45 45 43 42 46 50 40 37 40 30 17 18 18 16 16 16 16 15 15 13 14 15
32 31 31 24 24 26 28 30 30 30 30 33 35 39 43 46 48 47 47 47 47 47 46 49 52 55 58 61 59 52 48 48 48 47 45 47 49 39 30 31 29 19 16 18 18 17 15 15 15 14 15 15 15 16
29 27 28 29 29 29 28 29 29 32 34 37 40 43 46 46 46 46 47 48 47 48 50 54 57 61 64 62 58 55 49 48 46 46 50 48 38 33 26 24 20 19 17 19 18 16 16 15 14 14 16 17 18 19
29 29 28 27 28 29 31 33 34 36 40 43 45 45 46 44 44 45 46 48 51 53 56 58 62 64 61 56 54 52 50 47 50 50 42 33 28 28 24 20 19 21 17 17 17 16 17 18 17 18 18 19 21 23
25 26 28 30 32 34 36 38 39 42 43 44 43 42 44 44 42 44 48 51 53 57 61 65 65 63 59 56 55 53 52 49 43 43 43 39 33 28 22 20 17 13 13 15 16 17 19 20 22 23 25 27 29 29

GFSWCAN_500_spd_060.txt.gz
Wind_Speed
85 81 74 74 60 54 60 63 46 38 40 36 33 41 33 25 22 15 13 10 8 9 7 7 7 7 13 13 15 19 21 16 9 12 14 16 15 15 15 16 17 18 18 19 20 20 19 19 20 23 25 25 26 28
81 77 77 69 58 60 64 58 47 37 39 38 34 28 31 28 22 10 13 15 14 14 10 7 7 6 8 10 14 14 19 21 13 7 10 15 15 16 16 17 18 19 19 19 19 19 20 21 21 23 22 25 27 29
80 76 73 69 66 61 56 57 43 37 39 36 32 20 33 27 16 14 7 13 15 16 11 10 9 8 7 7 7 12 13 19 21 18 10 10 13 16 17 16 18 19 18 20 22 23 23 26 25 25 25 26 28 30
75 70 78 72 60 44 59 45 40 39 37 40 35 28 32 25 18 15 8 6 13 15 13 11 10 10 9 8 6 8 9 12 14 16 17 12 8 8 9 13 18 22 22 25 30 29 30 31 31 31 31 31 30 30
67 70 75 70 60 56 66 55 41 40 37 39 35 32 29 26 21 15 10 7 11 14 14 13 12 12 11 9 6 5 7 9 11 13 14 15 12 7 12 13 15 19 19 23 27 29 32 34 34 35 35 34 35 33
69 74 69 66 58 65 43 45 41 39 38 39 36 30 31 26 21 15 12 10 13 16 18 16 15 12 12 12 9 7 6 7 9 8 8 10 10 11 12 15 17 19 19 20 22 20 20 22 24 25 26 26 26 28
78 78 73 59 64 59 48 44 43 37 38 36 34 31 34 29 23 18 16 14 13 17 19 17 15 14 13 13 11 9 6 6 5 7 8 9 9 9 9 11 13 16 17 18 19 21 21 21 22 25 27 27 26 26
79 75 65 73 62 51 50 45 45 42 32 33 31 35 32 31 26 21 17 16 18 19 19 18 16 16 15 12 11 11 9 10 9 10 10 10 11 12 14 14 15 16 18 21 23 25 25 26 26 26 28 30 30 30
85 76 60 67 57 53 54 47 43 39 32 29 32 29 32 29 27 23 19 18 21 19 19 18 18 17 17 16 15 13 13 13 15 15 15 18 18 18 21 23 24 25 24 25 27 28 30 32 30 32 36 36 35 36
84 72 62 69 52 51 52 41 37 35 37 31 31 32 33 28 25 24 20 21 21 22 21 20 19 19 18 17 17 15 17 17 17 19 21 20 21 24 26 28 30 31 33 34 35 36 38 41 43 43 44 42 42 45
74 66 68 62 51 54 47 43 36 34 32 31 25 28 26 24 25 23 22 21 21 22 22 21 21 21 21 19 19 20 21 22 21 22 25 25 23 27 30 33 34 35 37 40 42 44 45 47 49 52 54 56 57 58
66 67 65 57 54 51 50 43 35 33 30 28 29 27 21 21 21 19 21 24 25 24 23 23 23 22 23 23 23 24 25 26 26 26 27 27 27 30 33 35 38 40 42 44 46 47 49 51 53 52 53 56 58 58
65 71 62 53 52 55 47 41 31 36 33 30 29 24 18 18 17 16 18 22 26 24 26 26 23 24 24 25 25 25 26 26 27 28 31 31 32 32 34 36 38 40 43 45 47 47 48 51 54 57 58 62 66 69
77 63 58 57 60 48 49 36 38 36 32 27 24 21 18 15 12 12 17 21 24 25 24 24 23 23 23 22 24 25 26 27 29 31 33 35 36 35 36 38 39 42 46 47 49 50 51 56 60 64 68 73 80 83
68 58 54 54 54 52 44 36 35 28 30 26 24 26 21 17 10 8 11 16 19 20 22 23 23 21 20 21 23 25 27 30 32 35 37 38 38 39 40 41 43 45 47 49 52 55 59 63 67 71 79 80 75 68
70 57 53 56 53 45 39 32 31 29 26 24 22 22 19 13 11 8 11 15 19 20 22 23 22 19 20 20 22 25 28 30 33 35 37 40 42 43 43 44 46 47 49 52 56 60 63 69 74 76 69 62 52 43
70 56 57 52 50 44 36 32 32 32 27 21 16 19 17 11 9 15 18 19 22 23 23 22 20 19 19 20 23 26 28 30 33 36 39 42 44 45 46 47 48 49 52 56 60 65 70 75 71 63 55 44 36 30
64 54 54 48 50 45 40 35 32 30 27 22 19 16 14 12 14 17 18 20 23 24 23 20 19 19 19 20 24 27 29 32 36 39 42 44 46 48 49 51 51 52 56 60 65 70 72 68 60 49 40 31 29 28
55 57 53 47 48 45 40 35 30 29 27 27 19 13 10 16 16 16 17 21 23 23 21 19 18 19 20 22 27 30 32 36 40 43 44 47 50 52 53 53 54 55 60 65 68 69 67 58 48 39 35 30 29 30
60 55 48 48 48 45 41 37 32 30 28 25 17 7 12 19 17 17 19 21 21 21 19 20 19 19 22 28 30 32 35 40 43 45 48 52 54 56 55 55 56 59 63 67 69 60 56 47 39 37 34 31 31 30
53 48 45 49 50 48 45 41 36 30 27 22 10 12 20 21 20 21 19 18 22 20 16 19 20 22 26 29 31 34 38 43 47 49 52 55 57 58 56 57 60 63 68 69 64 56 48 41 38 37 33 30 31 31
62 50 43 49 46 45 42 37 34 29 25 18 11 18 19 20 20 19 17 19 23 19 19 21 22 26 29 30 33 37 42 47 51 54 57 57 57 57 58 61 63 65 69 64 59 52 49 44 40 40 35 30 27 27
57 53 45 43 41 40 41 41 37 33 23 18 18 20 21 21 19 19 17 21 25 24 22 23 26 29 30 33 37 41 46 52 56 58 59 59 59 59 61 63 67 69 66 56 52 51 50 47 51 40 32 25 21 21
60 55 53 46 44 44 43 40 36 33 19 25 24 19 21 19 21 20 19 24 29 26 25 27 30 32 34 38 41 46 52 56 59 60 60 60 59 61 65 66 69 66 60 53 50 51 50 52 50 31 26 22 18 17
57 57 55 52 47 45 43 39 31 24 23 26 23 21 20 21 22 23 22 26 29 27 28 31 33 35 38 42 47 52 56 60 61 61 60 62 64 66 67 70 69 61 54 49 48 52 50 52 38 26 26 22 15 16
55 55 52 53 50 45 39 30 21 22 26 26 23 21 22 24 24 24 26 28 28 30 32 33 36 38 42 46 51 56 62 63 62 60 61 64 69 71 73 74 68 56 51 49 51 52 47 43 32 33 27 21 16 15
53 52 51 51 44 34 27 23 22 26 26 25 22 25 26 25 27 28 29 29 31 32 34 37 39 42 46 51 56 62 63 63 61 62 65 68 72 76 78 75 66 59 52 50 51 45 42 31 30 23 16 15 15 14
50 47 43 37 33 26 20 23 27 27 25 25 25 25 27 29 29 30 31 32 32 35 38 41 43 47 52 57 62 62 63 63 63 65 68 72 77 81 78 69 60 54 49 45 41 35 27 25 19 15 15 14 16 15
34 31 30 27 26 26 27 27 27 25 25 27 28 29 30 31 31 33 33 33 36 39 41 44 48 51 57 61 63 65 63 64 66 69 72 77 81 75 63 52 46 43 39 35 30 23 21 19 15 15 15 14 14 13
24 20 18 19 26 27 25 25 25 23 22 23 26 29 30 32 33 35 35 37 39 42 44 48 52 56 59 63 64 63 65 69 72 77 82 78 66 55 50 48 47 45 41 32 25 21 20 17 15 15 16 15 14 12
18 17 18 19 25 27 24 19 18 19 22 25 28 30 31 32 34 37 39 40 42 45 48 52 55 58 62 61 61 63 66 70 76 78 70 58 54 51 48 42 37 32 27 20 17 16 17 17 16 14 16 17 16 14
15 15 13 12 14 18 21 22 23 27 30 32 33 32 33 36 39 39 41 43 46 49 52 54 59 60 59 60 62 64 69 73 70 57 50 47 43 35 27 23 21 18 16 13 12 13 12 14 15 16 18 19 18 17
18 17 17 18 20 21 24 28 31 31 32 31 32 35 37 38 39 41 43 47 49 51 55 58 57 57 59 61 62 68 69 60 49 43 37 30 25 22 21 19 18 16 15 14 14 14 15 16 15 15 19 20 20 21

GFSWCAN_500_spd_063.txt.gz
Wind_Speed
21 62 82 85 86 53 53 55 48 53 43 31 34 31 38 43 36 33 27 22 18 15 11 8 4 5 3 8 11 15 19 20 22 15 8 4 10 14 15 17 17 19 21 22 23 23 23 24 23 23 25 25 27 28
40 80 83 79 80 43 51 56 47 56 45 35 37 28 42 43 37 32 27 24 20 15 12 10 7 5 4 4 7 10 13 13 17 21 21 13 6 7 12 13 16 17 21 22 24 24 23 24 24 25 26 27 27 27
57 84 80 70 53 47 54 54 48 52 37 37 39 31 47 42 37 32 28 25 21 16 15 12 9 6 6 4 3 5 8 11 12 15 17 20 21 16 9 8 14 16 19 21 24 25 27 27 29 31 31 32 32 33
74 83 75 68 53 59 53 54 51 46 38 41 37 34 48 43 36 30 28 25 19 16 15 14 10 8 7 6 5 5 6 7 10 10 12 13 14 16 16 12 9 13 16 18 20 24 25 29 31 34 36 37 37 37
81 82 76 61 59 57 54 54 55 47 33 40 35 37 45 45 37 30 24 20 17 17 15 15 13 10 8 8 7 6 7 8 6 7 9 11 13 13 13 11 11 12 15 20 24 27 27 27 27 28 30 31 32 32
81 84 68 66 65 52 48 53 59 46 31 34 33 39 38 42 36 30 24 19 15 15 13 11 11 9 9 10 9 7 7 8 9 8 10 10 10 11 11 10 12 13 14 14 15 16 18 19 21 23 25 26 27 28
86 83 70 65 59 52 52 53 46 40 33 38 36 35 35 39 36 30 25 19 14 13 12 12 10 11 11 10 10 9 8 8 10 10 12 11 11 12 13 16 16 16 17 18 20 20 22 25 26 27 28 28 29 29
84 77 82 58 56 55 45 53 41 33 35 40 38 30 46 41 37 32 26 21 16 14 13 11 11 11 12 10 10 9 9 10 12 13 15 16 16 17 18 20 23 25 24 26 27 28 29 30 31 33 34 35 36 38
83 73 69 61 54 45 54 54 45 36 37 38 40 35 43 39 34 29 26 22 18 14 12 12 12 13 13 13 13 12 12 13 15 15 17 19 20 21 23 25 29 31 32 33 34 35 38 39 40 42 43 45 45 47
79 73 69 63 56 50 54 51 41 34 37 35 34 38 44 40 35 31 28 23 19 16 15 13 12 13 13 13 14 14 15 15 16 18 20 19 21 25 27 27 29 31 34 36 37 39 42 45 47 48 49 51 52 55
74 73 72 71 56 55 50 45 40 41 32 27 27 38 43 39 37 33 27 24 19 17 15 15 16 16 15 15 17 17 18 19 18 19 21 20 23 24 27 28 30 32 34 36 38 40 43 44 45 46 49 51 54 57
74 71 67 62 54 52 49 45 41 42 34 30 38 36 37 34 33 31 27 23 20 18 16 16 17 18 18 18 19 19 20 20 20 20 21 22 23 26 28 30 32 35 38 39 42 44 45 46 47 48 49 51 53 57
77 68 62 57 50 48 47 44 42 40 34 30 36 36 36 31 29 26 21 18 16 16 18 20 20 21 20 20 19 20 20 18 20 21 22 24 26 27 29 32 35 38 40 42 46 48 49 49 50 52 55 58 61 64
74 72 67 55 50 45 54 43 42 35 30 38 37 33 33 28 24 20 18 18 17 18 20 21 23 22 22 20 19 19 19 19 20 21 23 25 27 29 32 35 38 40 43 46 50 51 51 52 53 57 61 65 71 75
76 69 71 52 57 45 50 44 38 32 30 33 33 29 24 23 21 18 16 15 16 17 20 23 23 23 22 19 18 19 20 21 21 23 25 28 30 33 35 39 42 45 49 51 52 52 54 55 56 61 68 74 75 68
74 71 62 58 55 51 48 40 34 31 32 33 31 28 23 25 20 16 14 15 16 18 22 23 23 21 18 19 19 18 20 21 21 24 28 30 35 37 39 44 47 51 54 55 55 54 56 59 61 66 72 72 62 49
75 66 60 60 53 49 44 35 33 35 33 28 27 25 23 22 16 17 17 19 16 17 21 21 20 17 17 19 18 19 21 22 24 27 30 35 38 40 44 49 52 55 58 58 57 58 61 64 67 72 69 60 47 41
67 62 56 53 51 52 45 37 39 33 28 26 25 20 19 16 17 21 24 20 20 20 18 18 19 16 17 19 20 21 23 25 28 30 34 37 41 46 50 53 56 59 59 59 59 62 64 66 70 70 60 49 41 39
65 60 52 48 51 49 45 40 37 32 30 28 22 16 18 18 15 19 20 19 19 18 17 17 17 17 20 21 22 23 26 28 30 34 37 42 46 50 54 58 61 61 62 62 63 65 67 69 70 65 55 47 39 40
65 57 50 50 55 48 44 40 35 32 30 28 22 17 13 17 20 20 19 19 19 17 16 17 19 20 21 22 23 25 29 30 32 37 42 46 50 55 59 63 63 62 63 65 66 68 69 68 65 59 53 50 44 41
67 61 49 51 51 47 44 39 35 31 28 26 24 18 14 18 19 19 18 19 20 15 16 19 20 20 21 23 25 29 31 32 36 41 47 51 56 60 65 66 66 65 66 68 70 68 69 66 61 55 52 49 43 37
62 54 49 51 47 43 41 37 32 29 27 23 17 20 18 18 16 16 17 19 22 17 17 20 21 21 23 25 28 31 33 36 40 45 50 55 60 65 67 67 67 67 69 71 73 71 69 61 55 51 50 45 37 29
54 50 53 48 44 39 38 38 36 34 30 22 17 21 20 16 17 19 16 19 25 19 19 23 24 25 27 29 31 33 36 41 46 51 55 60 65 67 69 68 69 71 74 74 74 72 64 57 51 49 49 42 29 23
48 48 50 45 41 37 37 40 40 37 30 24 17 22 21 18 20 18 15 21 28 23 23 25 26 28 30 32 33 36 41 45 50 56 60 64 67 70 70 71 73 77 79 78 77 70 59 53 50 49 49 41 26 22
51 49 45 44 38 36 38 40 39 32 29 21 17 21 21 22 21 18 18 25 29 25 27 27 29 30 33 35 37 41 45 49 54 58 66 69 71 71 71 74 77 81 85 79 70 62 54 51 48 48 44 35 24 22
55 48 47 47 42 36 34 33 28 24 16 15 22 22 22 23 24 22 22 26 26 27 28 30 32 34 36 37 41 45 49 54 57 62 68 73 73 73 74 78 81 88 84 74 64 55 46 42 44 42 33 26 21 10
59 59 56 50 43 39 34 32 23 16 12 16 19 20 23 26 26 22 24 25 26 27 31 33 34 36 38 41 44 48 53 57 61 66 72 72 73 76 81 86 92 85 74 66 59 52 45 39 35 28 21 18 11 7
61 59 56 49 44 38 35 29 19 14 15 16 17 21 25 27 26 25 26 28 30 33 34 34 35 38 41 44 47 52 55 60 64 70 71 73 75 79 87 90 80 73 66 58 49 42 36 28 22 19 17 11 10 9
54 50 48 44 41 37 29 23 19 14 17 19 20 22 26 28 29 28 28 29 32 34 33 36 38 41 44 46 51 54 58 63 69 69 70 73 74 84 86 74 63 52 44 41 39 35 28 16 15 16 13 10 11 11
49 45 43 40 33 26 22 21 21 20 20 21 24 27 27 27 29 30 31 31 32 34 35 38 42 44 46 50 54 57 62 68 69 70 72 73 81 82 66 52 40 35 34 33 32 29 22 16 16 15 11 11 12 13
43 36 29 25 21 20 20 18 17 20 22 24 26 26 26 27 27 26 27 30 32 34 38 41 42 45 49 52 56 61 67 67 69 71 72 79 79 63 45 30 28 29 30 30 29 28 26 22 19 16 13 13 15 16
31 23 17 14 13 12 13 17 18 20 22 24 24 25 27 27 26 29 32 33 35 38 40 42 45 48 51 54 59 64 66 67 68 69 76 75 61 41 26 27 30 32 32 32 31 29 27 25 23 22 19 15 15 17
24 19 15 15 15 14 14 17 18 21 23 26 28 28 26 29 32 32 34 36 38 40 42 45 48 50 54 58 61 63 65 66 67 72 70 56 38 24 25 29 33 34 34 34 33 31 30 28 25 23 21 18 17 20

GFSWCAN_500_spd_066.txt.gz
Wind_Speed
39 33 27 73 77 76 70 63 49 54 48 44 41 35 34 32 41 35 32 30 28 25 21 17 12 9 8 8 11 13 15 19 20 22 20 16 8 2 7 12 15 17 20 22 24 24 23 26 27 27 27 27 27 28
39 18 58 78 73 67 49 45 49 49 46 42 43 34 30 34 40 35 33 31 27 24 21 17 13 10 7 5 5 7 10 12 15 16 17 16 18 15 8 4 8 10 12 18 20 22 24 24 25 28 29 30 31 33
32 21 70 76 71 48 42 51 50 46 44 39 33 35 28 41 40 35 33 30 28 25 21 17 13 10 7 5 4 3 5 7 8 9 11 12 14 12 13 12 13 13 14 14 12 13 17 20 23 26 28 30 34 36
22 43 74 76 69 46 47 47 45 46 40 35 34 33 32 41 40 35 32 28 26 24 20 16 12 10 8 6 5 3 2 2 5 5 8 9 9 9 9 9 11 13 15 16 17 19 22 24 25 27 28 29 32 35
18 59 75 72 53 47 56 50 42 40 41 32 35 30 34 39 39 35 32 30 27 24 20 18 16 11 8 6 4 3 2 1 2 5 7 8 9 10 10 11 11 14 15 18 19 22 25 26 26 25 24 24 25 26
27 72 74 63 56 59 52 42 41 44 41 31 32 31 33 47 40 36 33 30 26 22 16 16 15 11 8 5 4 3 4 4 3 6 8 9 10 12 13 14 16 17 19 21 22 23 26 27 28 28 29 30 31 31
49 75 74 54 55 58 47 43 41 38 34 34 28 33 37 46 38 32 31 30 25 22 19 17 15 11 9 6 4 5 4 5 6 7 10 11 13 14 16 16 19 21 23 25 27 28 30 32 32 33 34 36 37 38
69 84 79 62 44 44 47 46 43 42 33 34 27 31 35 50 40 35 33 29 26 22 19 15 14 11 8 6 5 5 6 7 8 9 12 14 16 17 18 19 21 22 24 26 28 30 32 35 38 39 42 43 43 44
74 83 73 62 47 46 50 50 44 45 31 29 28 34 32 44 43 37 34 30 25 20 16 15 13 11 7 7 7 7 7 8 10 11 14 17 19 19 19 20 22 23 26 28 30 32 35 37 40 42 45 47 48 49
71 73 72 58 48 48 47 50 44 41 32 31 26 31 29 38 40 38 35 28 24 21 19 14 13 10 8 8 8 9 9 9 12 15 17 19 19 19 19 21 24 26 28 30 32 35 38 40 42 45 47 49 50 49
75 77 70 55 51 44 45 52 45 38 31 27 29 29 35 41 41 36 32 28 26 23 19 14 12 11 10 10 11 10 12 13 13 17 18 18 18 19 20 23 25 26 29 32 35 38 41 43 45 46 47 50 50 50
81 79 68 60 56 49 43 47 44 34 25 27 28 29 36 44 42 38 32 29 26 21 17 15 13 12 11 11 12 13 15 16 16 16 17 18 19 20 21 24 27 29 31 35 39 43 46 49 50 51 51 52 52 52
85 83 76 60 51 51 47 50 48 37 26 28 32 31 38 42 41 34 33 31 25 19 16 15 14 14 13 13 14 16 17 17 17 17 18 19 20 21 24 27 30 31 35 39 44 48 51 53 54 54 54 54 54 55
86 84 79 58 50 46 50 54 41 32 32 31 33 32 37 35 38 32 30 24 24 24 20 18 18 18 17 17 16 17 18 18 17 19 20 20 22 25 27 31 33 36 40 45 49 53 56 56 55 55 56 57 58 61
88 84 72 60 55 46 47 45 39 35 34 32 35 33 32 31 29 26 28 26 23 20 21 22 21 20 20 19 18 19 19 19 19 21 21 23 26 28 31 34 38 43 47 52 56 59 60 58 57 56 58 59 62 64
85 75 72 70 63 55 44 43 40 36 36 31 33 35 31 30 27 27 26 25 23 22 22 22 21 21 20 18 19 20 19 20 22 23 24 28 31 33 35 40 45 48 53 57 62 63 62 61 59 58 58 61 62 62
83 79 76 64 54 53 47 45 39 40 33 32 33 32 30 29 29 30 27 24 22 20 20 18 18 18 17 18 19 19 19 22 23 24 27 32 35 38 41 45 49 53 57 63 67 67 66 64 63 61 61 62 60 56
75 71 66 64 54 48 47 48 39 37 37 35 38 34 30 29 31 27 25 24 22 20 18 17 17 16 16 19 19 20 22 24 24 26 29 34 38 42 46 51 54 58 63 67 70 69 67 67 65 65 64 62 55 52
72 72 64 59 49 41 42 43 41 38 37 38 37 33 29 29 26 25 23 21 19 17 17 17 16 16 18 19 20 21 24 26 25 28 32 36 40 46 50 54 58 63 67 71 73 71 70 68 68 66 63 58 54 52
64 68 68 58 46 47 43 44 41 39 38 35 33 30 27 29 27 25 22 19 18 17 17 17 17 18 19 19 20 23 25 25 27 31 36 40 45 49 54 58 63 67 71 75 74 74 74 73 72 66 58 54 52 50
68 64 62 60 51 50 48 44 42 39 39 37 34 30 27 28 26 24 20 19 18 19 20 20 19 19 19 21 21 23 25 28 31 35 39 44 48 53 58 62 66 71 76 77 78 77 79 79 70 59 54 51 50 46
69 65 56 55 53 51 47 40 43 42 40 39 36 31 25 25 24 22 18 18 18 20 21 21 21 20 20 21 22 25 28 32 35 37 42 46 51 57 61 65 70 75 79 80 81 82 82 75 66 56 51 48 46 44
67 61 55 49 51 55 49 46 42 43 41 40 37 33 27 22 21 19 18 19 20 21 21 22 21 19 20 22 24 26 29 32 35 39 45 48 55 60 64 69 74 79 80 81 85 87 80 70 60 53 48 44 43 40
62 61 56 50 53 54 47 46 44 41 38 34 30 26 29 27 25 21 19 24 29 24 21 21 19 20 21 22 23 26 30 34 37 44 47 52 58 63 68 73 78 81 82 86 88 81 72 63 57 50 44 39 37 37
60 59 55 48 51 52 49 45 43 39 34 31 24 23 28 27 26 23 23 28 32 30 23 21 20 21 23 24 25 30 34 37 43 48 51 56 60 65 70 76 79 81 86 88 83 71 61 57 51 43 37 32 32 22
60 57 53 49 49 49 45 40 36 33 35 32 25 21 23 24 25 26 27 29 32 32 27 23 22 25 28 27 29 33 37 42 46 50 55 60 64 68 72 76 79 82 87 85 65 54 52 51 46 38 29 24 19 14
56 52 49 48 46 44 39 34 31 30 26 20 20 27 28 27 30 29 28 30 32 31 28 25 26 30 31 32 33 37 41 46 50 54 58 62 66 71 75 79 80 83 84 62 46 46 47 45 40 30 22 20 17 9
58 50 46 42 41 40 35 29 23 20 18 21 23 25 29 31 31 30 32 31 31 29 28 28 30 32 32 33 36 40 44 48 52 56 60 65 70 74 77 78 80 83 65 45 44 45 45 42 38 32 26 22 18 7
55 51 45 42 36 36 34 28 20 17 14 18 23 25 27 29 32 34 32 30 30 31 30 29 32 34 35 36 39 43 47 51 54 58 62 67 72 76 76 77 81 68 47 43 47 49 46 40 35 31 27 23 18 10
49 46 42 37 36 35 32 25 20 17 17 21 26 30 31 33 33 32 30 29 29 29 29 31 33 34 35 38 41 45 49 52 56 60 64 68 72 74 74 77 73 50 40 44 48 46 40 36 33 29 26 23 20 14
49 45 39 37 37 35 27 20 25 24 23 28 30 32 32 32 32 29 28 27 26 24 28 31 32 34 38 41 44 47 51 55 58 62 66 70 71 72 74 72 52 38 41 46 40 34 32 32 32 31 27 23 20 17
45 42 40 36 27 25 25 24 24 24 26 28 30 31 31 29 27 27 27 25 24 27 31 33 36 38 41 44 46 50 53 56 60 65 69 69 69 70 72 53 36 38 41 36 27 30 33 33 33 33 32 27 21 18
44 38 28 25 24 25 26 26 25 29 30 30 31 30 30 29 27 25 25 26 29 32 34 36 38 41 43 46 49 51 54 59 64 67 67 67 67 69 52 34 35 38 32 26 30 32 32 32 32 30 29 31 26 20

GFSWCAN_500_spd_072.txt.gz
Wind_Speed
59 57 50 29 3 31 47 51 47 39 38 39 36 30 26 24 26 31 30 25 26 31 34 31 28 26 24 23 24 22 21 20 20 18 16 15 14 11 9 9 7 6 4 5 4 7 8 8 10 11 11 12 15 18
57 57 45 12 24 46 45 47 46 45 34 40 33 26 24 22 23 31 29 27 29 31 33 31 26 22 20 20 19 18 18 17 16 15 13 12 10 9 7 6 4 2 2 1 3 5 6 8 10 12 14 17 20 23
55 55 31 5 40 45 46 46 39 37 41 34 24 26 20 19 23 29 29 28 29 30 30 28 25 21 17 16 14 14 12 11 11 9 8 7 6 5 3 1 1 3 4 6 8 11 12 14 16 18 20 23 25 27
54 53 17 24 47 50 44 43 45 39 33 28 23 23 20 21 31 30 27 28 28 27 26 24 21 19 17 15 13 10 8 8 6 5 4 3 3 1 3 4 4 7 9 11 13 15 17 20 21 24 26 29 31 33
53 47 11 35 53 50 48 41 38 32 30 23 19 18 16 25 30 26 25 25 26 25 24 22 20 17 15 12 10 9 7 6 5 4 4 4 5 4 5 6 8 10 12 12 15 18 21 22 24 27 29 31 35 37
50 39 8 47 53 51 42 36 36 33 31 23 18 18 18 30 29 25 23 23 24 21 21 20 17 15 13 11 9 8 7 6 6 6 6 7 7 8 9 10 12 13 15 18 19 21 24 26 28 30 32 34 37 40
43 29 23 47 47 45 44 42 38 34 26 20 16 15 14 26 27 24 23 23 24 22 20 20 17 14 12 10 10 9 8 7 7 8 9 10 11 12 13 15 17 19 21 23 25 26 27 28 30 31 34 37 40 43
40 20 35 45 48 46 36 36 33 31 26 21 16 17 15 26 29 27 26 25 23 22 20 17 16 13 12 11 11 10 9 9 9 10 11 12 15 16 17 19 20 21 21 24 27 28 30 31 33 34 37 41 45 48
31 22 38 43 50 47 43 40 36 34 30 23 20 21 20 29 30 29 27 25 23 22 19 16 15 16 14 14 12 10 9 10 11 12 13 14 18 18 19 21 22 23 24 26 29 31 32 34 35 40 44 47 49 52
30 22 37 47 53 51 48 41 36 33 29 23 21 18 21 30 35 32 29 27 25 23 20 19 17 17 16 15 14 13 12 12 12 13 14 15 18 22 21 22 23 25 26 29 32 33 36 37 42 46 50 53 55 56
27 23 30 53 53 53 49 42 40 36 31 28 22 20 20 28 38 37 32 30 26 23 22 19 19 17 16 16 15 13 13 14 14 15 17 16 21 23 23 24 26 28 28 32 35 37 39 43 48 52 56 59 60 63
28 26 24 51 57 54 51 46 39 38 33 30 24 23 21 28 36 36 37 33 28 26 24 22 19 18 16 15 16 16 14 16 16 17 20 20 24 24 26 26 28 29 31 35 37 40 44 48 52 57 61 64 68 69
26 26 20 53 58 60 50 46 41 39 37 35 29 24 22 30 39 41 34 34 29 26 24 21 21 19 16 16 15 16 15 16 19 19 22 23 24 26 28 29 30 32 34 37 41 43 49 53 58 63 66 71 73 71
25 25 25 48 64 58 53 51 43 42 38 34 32 27 26 30 35 38 35 33 30 26 25 23 23 21 20 18 18 17 18 20 20 21 23 24 25 28 30 31 32 34 37 41 44 49 54 58 64 69 73 76 77 78
25 27 29 47 65 66 59 55 49 46 42 37 36 31 31 29 26 28 32 36 30 30 27 28 26 24 22 20 18 18 20 22 22 24 24 25 27 30 32 33 34 36 40 44 48 52 58 63 69 72 77 79 81 77
29 28 30 45 67 70 64 59 55 51 47 43 39 33 30 30 26 24 33 36 37 34 33 26 26 24 21 20 17 18 20 23 26 25 26 28 29 32 34 35 37 39 42 47 51 57 61 67 72 75 79 82 79 77
27 27 30 39 70 72 66 62 58 53 49 47 41 31 28 27 26 28 36 38 38 35 28 28 25 21 20 20 16 18 21 24 25 26 28 29 32 35 36 37 39 41 46 49 54 59 64 70 74 78 81 78 79 71
27 31 32 41 71 71 69 66 63 60 54 48 42 33 29 30 29 32 38 36 33 31 30 29 23 22 19 17 18 19 21 23 25 27 29 31 34 36 37 39 40 43 46 51 57 61 67 72 76 79 79 81 74 65
37 38 35 38 72 71 70 64 63 61 57 47 44 41 35 33 32 32 34 35 31 30 29 26 23 20 20 20 21 20 21 23 27 29 31 32 35 38 39 40 41 45 48 53 58 64 70 75 80 82 78 81 67 65
46 43 42 43 71 69 68 65 61 59 52 43 43 43 39 34 34 36 38 37 34 29 27 25 22 21 21 21 21 22 23 25 28 31 33 34 37 40 39 40 43 47 51 57 63 69 73 78 81 78 79 71 64 62
52 52 49 56 74 71 72 67 62 58 52 45 45 45 39 36 37 35 36 34 31 29 27 25 22 21 22 23 23 22 24 27 30 32 34 35 39 40 41 44 47 51 56 61 66 72 76 79 78 78 74 62 59 59
57 60 58 70 76 72 74 71 62 54 49 47 48 43 38 38 38 37 37 35 32 30 27 25 23 23 23 22 21 23 26 29 31 33 34 37 41 43 45 48 51 55 60 64 70 74 77 80 76 79 65 55 53 54
60 57 70 74 79 74 74 74 64 55 50 50 49 39 38 39 39 40 37 33 31 30 28 27 25 23 22 21 23 26 28 29 31 33 36 40 43 45 47 50 53 56 61 68 73 76 79 78 79 70 55 47 48 49
59 67 80 73 79 78 75 77 68 57 50 48 43 38 38 41 42 41 37 33 32 31 28 27 25 23 23 23 27 30 30 29 31 34 38 42 44 46 48 50 53 59 64 70 74 78 80 77 73 59 47 41 45 47
68 77 77 75 81 78 74 73 67 57 51 43 42 37 39 43 44 40 36 35 35 33 29 27 25 25 26 29 31 32 30 32 35 37 40 43 44 45 48 51 57 62 68 72 75 79 77 74 59 53 41 41 42 44
79 77 77 78 79 77 77 64 57 50 44 42 43 38 39 42 42 41 35 34 34 31 29 29 28 28 31 33 34 32 33 36 37 39 42 43 45 46 50 55 60 65 70 72 77 76 75 60 53 44 39 40 40 40
75 75 77 75 72 69 72 72 62 49 45 47 44 40 41 43 44 38 32 32 32 33 33 31 31 32 34 36 36 35 37 38 39 41 43 44 46 49 53 57 62 67 70 75 77 76 62 52 46 37 38 39 40 39
74 69 69 70 68 66 61 63 59 52 47 45 45 43 43 43 38 30 30 35 36 36 35 34 35 36 37 38 37 38 38 38 40 42 43 45 48 51 55 60 65 68 73 76 75 64 52 46 37 36 38 40 41 40
66 69 68 67 64 63 64 54 46 46 43 43 41 39 38 34 29 27 32 35 37 37 36 36 38 39 41 40 40 38 38 39 40 41 44 47 50 54 58 63 65 70 74 76 66 53 45 37 36 39 41 42 41 39
65 64 64 61 55 55 55 50 44 42 43 37 30 26 25 28 33 35 37 38 36 35 36 38 41 41 41 41 40 39 39 38 39 42 46 49 52 56 60 62 68 71 73 66 54 45 37 36 39 40 42 43 42 40
56 56 55 54 56 55 51 43 38 38 35 27 27 30 34 38 42 42 40 37 37 37 39 40 40 41 42 40 39 38 37 38 40 44 46 50 54 58 59 66 69 71 66 53 44 36 36 37 38 40 43 41 41 39
49 51 52 52 51 47 43 39 33 30 32 29 32 32 36 36 36 36 37 37 38 39 41 41 42 41 39 38 38 37 36 39 42 44 48 52 55 57 63 66 69 65 53 43 34 35 35 36 38 40 39 39 38 37
44 47 48 47 43 33 31 33 34 27 35 37 38 37 34 34 35 36 36 36 38 39 41 42 40 39 38 38 37 36 38 40 42 46 50 52 55 60 64 66 63 54 43 34 33 32 34 37 38 39 37 37 38 37

GFSWCAN_500_spd_075.txt.gz
Wind_Speed
69 65 52 11 22 43 39 34 36 35 25 18 19 22 20 18 16 20 17 20 23 27 31 31 30 29 28 28 25 23 21 21 21 18 15 14 12 9 9 8 6 4 3 4 3 4 5 8 8 9 11 13 15 17
67 64 35 13 32 37 34 41 37 30 21 19 20 17 17 18 16 18 18 23 27 28 30 30 28 27 25 24 23 21 20 19 17 17 14 13 11 9 7 5 4 3 2 3 5 6 7 8 11 14 16 18 20 23
68 61 13 23 42 34 34 36 33 24 16 15 14 15 13 16 19 19 16 22 29 28 28 27 24 22 21 19 18 17 15 12 11 9 8 7 6 4 2 2 3 5 6 8 10 11 12 16 17 19 22 24 25 28
68 56 6 27 35 31 36 34 30 20 16 14 6 5 9 12 20 18 16 17 25 24 23 23 21 19 16 15 13 11 10 8 6 5 3 2 2 2 4 6 8 9 11 12 14 15 17 19 20 21 24 27 28 29
66 52 5 31 29 29 34 29 22 17 17 11 8 6 5 7 19 18 15 17 20 19 20 18 16 14 12 10 8 6 6 3 3 3 3 3 4 5 7 9 11 12 14 15 17 19 19 21 22 24 25 27 28 31
60 52 9 34 36 30 33 23 18 16 18 16 14 8 6 11 17 15 14 16 18 17 18 15 13 11 10 8 6 5 4 4 4 5 6 7 8 9 10 13 14 15 16 17 19 20 22 23 24 27 27 29 31 33
53 56 5 30 32 31 31 23 23 21 20 14 13 12 10 13 19 17 18 18 18 17 16 15 12 10 9 8 7 6 6 6 7 8 9 10 11 12 15 17 17 18 19 20 21 23 24 25 26 28 31 31 33 38
44 52 6 32 32 34 37 30 30 21 21 15 14 14 15 17 23 21 17 15 16 17 15 13 12 10 9 9 9 9 9 10 10 11 11 11 13 15 18 19 20 21 21 22 23 26 26 28 29 32 33 36 40 45
41 43 20 33 38 41 39 36 32 28 25 17 19 21 16 22 28 25 21 18 16 16 15 14 13 13 10 12 11 12 12 12 11 12 13 14 18 18 18 20 22 23 25 25 26 28 30 31 33 36 39 42 46 50
38 39 44 19 49 43 41 39 36 33 31 28 22 22 18 21 31 29 23 20 18 19 17 16 15 15 14 13 13 13 14 14 14 14 13 15 19 22 22 23 25 26 27 27 29 31 33 35 37 39 44 48 52 56
40 36 39 35 39 52 47 44 43 42 38 33 28 23 22 25 29 32 30 26 24 20 20 19 19 17 15 14 14 14 16 16 17 18 17 16 20 21 23 26 28 29 30 31 33 35 38 40 42 45 49 55 59 64
41 35 36 34 23 48 54 51 49 43 39 38 34 29 28 29 31 35 34 32 29 27 23 22 19 18 17 15 15 15 15 16 17 19 19 20 21 22 24 27 29 32 34 35 37 39 42 44 47 50 55 59 64 68
39 36 35 34 25 26 51 53 52 47 44 44 39 33 30 28 33 40 37 34 29 27 26 24 22 20 18 17 18 17 16 16 19 20 20 21 23 24 26 29 32 35 37 38 40 42 45 48 51 55 59 63 67 71
40 35 34 34 26 24 53 56 56 55 51 49 44 38 35 33 31 29 33 35 35 34 31 28 27 25 22 24 23 19 19 19 19 21 22 23 24 26 29 31 35 38 40 42 43 45 48 51 54 59 62 67 71 78
39 37 36 33 26 27 36 60 57 57 55 53 48 45 37 35 29 26 29 36 37 33 30 30 30 29 27 27 24 21 20 21 21 24 23 24 27 28 31 33 37 40 43 44 46 48 51 52 56 61 66 72 77 79
42 37 34 31 32 29 29 57 64 61 61 57 51 47 39 35 28 23 24 31 39 36 36 33 33 30 28 26 23 23 22 24 27 25 26 27 29 31 34 36 39 42 44 46 48 49 52 54 59 65 70 75 78 86
46 34 34 33 30 31 33 43 67 65 65 63 51 46 41 36 28 26 26 28 35 38 37 37 33 34 30 28 24 24 25 26 26 26 27 28 30 34 36 38 40 43 46 48 50 51 53 58 63 68 74 78 84 84
44 34 38 34 31 32 32 34 61 71 69 63 53 46 43 36 32 27 31 34 34 38 39 38 39 37 33 29 26 25 24 26 26 27 28 29 33 35 37 39 41 45 47 49 51 54 57 62 66 72 76 81 84 77
47 38 43 38 36 34 35 37 49 75 72 64 57 51 48 41 36 32 31 33 35 38 42 41 40 37 33 29 28 26 24 25 26 28 28 32 35 37 38 40 43 46 48 51 54 57 60 63 69 74 78 84 79 72
49 44 47 41 40 42 41 44 42 64 73 64 61 56 51 47 43 36 32 33 36 37 40 40 33 30 31 30 27 23 24 25 27 27 30 33 35 37 38 41 45 48 50 53 55 57 61 67 73 77 83 82 73 62
56 55 51 51 51 50 46 47 43 58 74 66 61 55 52 49 48 44 38 35 37 35 35 34 33 32 30 27 24 24 25 26 26 27 30 32 35 37 39 43 47 50 52 53 54 58 63 70 74 80 82 75 67 52
62 62 59 58 55 58 60 54 46 51 72 68 60 58 54 52 50 47 43 41 38 36 37 37 35 31 27 24 23 24 26 28 26 28 30 33 35 37 41 45 49 51 51 53 56 61 68 72 77 83 78 68 56 45
67 68 59 58 63 69 70 61 53 57 71 68 61 58 56 53 50 47 44 40 39 38 37 35 32 29 25 23 23 26 28 29 28 29 31 35 36 39 43 47 49 50 52 54 59 65 70 74 80 80 71 60 47 42
70 59 55 61 70 74 72 66 63 63 71 70 63 56 54 50 48 47 44 39 40 39 37 34 32 27 25 25 26 28 30 32 31 30 33 37 38 42 46 48 49 50 53 57 62 68 72 76 81 75 64 50 42 41
54 54 58 66 73 75 73 67 70 69 72 69 61 56 52 50 49 47 41 40 42 38 33 31 28 27 28 28 29 31 33 34 31 32 36 38 41 45 48 49 49 51 56 60 66 70 74 79 76 68 54 42 42 43
55 65 66 69 71 69 67 66 65 69 67 64 63 56 52 51 49 46 40 38 36 35 34 31 32 32 30 30 30 32 35 33 31 35 37 40 44 48 49 49 50 53 57 63 67 71 75 77 69 58 44 42 43 44
62 69 66 64 64 64 62 66 62 66 68 65 61 55 47 49 49 44 36 36 37 36 33 32 33 32 32 32 32 35 35 31 34 37 38 43 47 49 48 49 51 54 60 63 68 73 76 71 60 46 41 40 42 42
59 63 56 54 52 51 59 65 62 69 67 65 61 56 46 43 42 36 31 34 36 35 35 36 34 34 33 34 36 36 34 33 36 38 41 45 48 48 48 49 52 57 61 65 70 74 72 62 48 40 39 41 43 40
48 46 44 45 46 54 60 65 68 68 62 60 52 43 41 41 38 34 32 32 34 35 35 35 37 36 35 36 36 35 33 34 36 40 43 46 47 46 48 50 54 59 62 66 71 73 64 51 40 38 39 41 41 38
40 43 41 44 49 54 57 58 63 62 56 56 51 43 41 39 35 32 28 29 32 34 37 38 38 39 36 34 34 32 33 35 38 41 43 45 45 47 49 51 57 60 64 68 71 67 56 43 36 36 38 41 42 39
43 43 41 46 52 51 56 53 56 55 57 54 47 42 38 31 33 31 30 34 36 34 34 37 39 34 32 33 32 32 34 36 38 41 43 44 45 47 49 54 57 61 65 69 67 59 46 38 36 38 39 41 42 39
36 41 38 44 47 46 48 53 53 50 49 47 35 33 35 32 33 34 35 36 38 39 42 38 34 33 32 32 33 32 35 37 39 40 41 42 44 47 52 54 59 62 66 65 60 49 38 35 36 38 40 42 43 41
31 36 41 43 42 43 44 47 46 42 40 37 30 33 38 36 37 38 40 42 42 41 36 33 32 32 32 31 32 35 37 38 38 39 40 42 44 49 51 55 59 63 64 61 52 40 34 34 36 40 41 42 43 43

GFSWCAN_500_spd_078.txt.gz
Wind_Speed
69 42 15 22 25 19 17 14 15 12 12 13 13 12 13 13 16 18 19 23 25 28 30 30 30 30 30 28 26 24 20 19 17 14 13 12 10 8 7 7 6 4 3 1 0 3 5 7 9 10 12 14 16 18
64 41 12 21 20 18 19 15 9 7 10 11 13 13 9 10 16 19 20 23 25 26 28 28 27 26 25 24 23 20 18 17 16 14 13 11 9 7 5 3 2 2 2 4 5 7 9 12 14 16 19 21 23 26
56 39 8 17 17 16 17 10 8 8 8 8 9 8 6 7 12 19 22 23 26 26 25 23 22 21 21 19 18 17 15 13 12 10 8 6 4 1 1 3 4 6 8 9 11 12 13 15 16 19 21 23 26 29
49 53 4 18 22 19 17 12 9 8 6 4 3 3 4 7 9 16 20 23 21 21 21 19 19 17 15 15 13 12 10 9 7 6 4 2 2 4 6 7 9 10 12 14 15 15 17 18 19 20 22 24 26 29
46 50 5 21 20 19 18 16 12 9 7 6 6 8 8 10 10 11 15 16 15 14 16 15 13 11 10 9 8 6 4 3 2 0 2 3 5 7 9 11 12 14 15 16 19 19 19 21 22 23 24 27 29 31
37 42 25 17 23 24 22 19 18 15 12 11 11 13 13 13 14 17 12 13 12 11 12 11 8 6 4 3 1 0 1 2 3 5 6 8 9 10 13 14 14 16 18 19 19 21 22 23 25 26 28 30 32 34
31 32 35 7 26 26 26 25 22 22 21 17 16 14 13 16 18 17 15 12 11 9 9 7 5 3 3 3 3 4 6 6 8 9 8 10 12 13 16 16 17 18 19 20 21 23 24 26 27 29 31 34 36 38
23 27 28 27 4 33 28 32 30 27 26 25 19 16 16 16 21 22 18 15 14 11 10 9 9 7 6 7 8 8 8 9 10 12 12 12 14 16 17 18 19 20 21 21 23 25 27 30 31 32 35 37 39 42
23 23 24 24 20 9 37 37 36 29 28 25 25 21 23 20 21 26 24 19 17 14 13 13 12 12 11 12 12 11 10 11 11 13 13 16 18 17 18 19 20 21 22 24 26 28 31 32 34 37 39 41 43 46
24 22 21 21 24 11 22 35 39 40 35 31 28 26 25 26 26 26 31 25 21 18 15 15 15 15 15 15 15 12 11 13 13 13 15 16 21 21 21 22 21 23 24 27 29 32 34 36 38 40 42 45 47 52
26 25 22 18 19 22 12 33 41 43 41 37 32 29 28 28 29 30 33 34 28 23 20 18 18 18 20 19 17 16 15 13 14 17 16 17 22 23 23 24 25 26 29 31 34 36 39 40 41 43 46 49 52 55
24 25 26 22 21 20 21 19 41 47 45 40 37 35 32 31 33 34 36 36 35 31 25 23 21 22 23 21 19 19 18 16 16 18 20 20 23 25 25 26 27 29 32 34 36 39 42 43 44 46 49 51 55 58
26 27 28 21 25 25 23 19 18 55 51 51 47 46 42 38 37 35 32 31 37 36 33 31 28 28 26 25 24 22 22 21 21 21 22 24 24 25 27 28 29 31 34 36 39 42 45 47 48 50 52 55 59 63
28 28 34 27 27 32 26 23 26 24 60 65 59 53 50 48 43 37 32 32 34 40 37 34 34 36 33 30 30 26 26 28 27 24 26 27 25 26 29 30 31 34 36 39 42 44 48 49 51 54 56 59 63 67
31 32 36 34 29 33 35 26 25 26 30 61 66 60 55 50 45 40 35 34 33 36 42 40 38 39 39 37 33 33 27 26 27 29 30 27 26 28 30 31 34 36 38 41 43 46 50 51 53 56 59 62 66 72
34 35 35 40 35 33 38 38 28 28 28 36 59 63 56 52 47 43 38 37 35 34 38 43 43 41 39 39 34 32 30 26 29 32 31 28 27 29 31 33 36 38 40 42 45 48 51 53 55 57 60 64 71 76
37 35 40 42 40 36 37 42 42 34 31 32 31 55 57 55 51 46 42 38 36 36 35 41 45 42 41 39 35 31 29 33 33 32 32 28 28 30 31 34 37 38 40 43 47 50 53 55 56 57 61 69 74 80
39 40 45 44 43 39 37 41 49 48 32 31 28 30 59 56 53 50 45 41 38 36 37 39 43 46 44 41 35 33 34 35 35 34 30 29 29 29 31 34 37 38 41 45 48 52 54 55 56 59 65 71 77 79
45 46 48 48 44 43 44 47 51 51 35 29 27 28 46 59 57 53 49 45 41 38 39 40 41 41 41 39 40 40 39 37 36 33 30 29 29 28 31 34 37 39 43 47 50 53 54 55 57 62 68 74 78 74
50 49 50 49 48 47 51 55 51 53 41 28 24 30 37 60 58 55 53 49 43 41 41 42 40 34 35 40 40 40 40 37 34 31 30 30 27 28 32 36 38 40 45 49 51 53 55 57 60 66 72 77 76 70
52 51 53 52 52 51 54 58 54 53 44 36 29 33 33 54 64 58 55 52 49 43 38 32 31 34 35 37 39 38 37 34 31 31 31 29 27 29 33 38 40 43 46 50 53 55 57 58 63 69 74 77 74 63
51 54 57 56 54 56 59 61 60 54 51 42 37 35 41 43 68 64 58 57 51 44 37 31 31 34 35 38 38 36 32 30 31 33 31 27 26 30 35 39 41 44 48 51 54 56 57 60 65 70 76 76 69 56
58 60 60 57 56 61 65 64 65 61 59 50 44 40 47 46 65 69 63 58 53 50 44 38 37 35 37 39 40 35 32 31 32 33 29 26 27 32 37 39 42 45 49 52 55 57 57 62 67 72 76 73 63 52
62 62 60 60 64 67 68 69 68 68 67 55 48 47 52 49 63 71 65 57 51 52 46 41 39 38 39 40 37 34 32 31 31 30 27 27 30 34 37 40 42 46 50 54 55 56 58 64 68 74 75 69 57 47
60 60 62 65 67 70 73 72 72 70 68 55 48 50 54 53 60 69 61 53 50 49 47 44 41 39 39 39 37 35 32 31 32 29 28 28 31 36 37 40 42 47 51 53 54 56 60 65 69 74 72 64 50 45
58 62 66 67 70 73 75 73 68 61 59 52 53 53 54 53 58 67 56 50 47 45 45 42 40 40 36 36 37 35 32 31 31 30 28 29 32 36 38 40 44 48 51 52 54 57 61 66 71 73 68 57 46 44
62 67 69 72 73 72 68 62 56 55 58 52 51 51 50 48 59 60 53 47 46 43 42 43 40 37 39 40 37 36 32 29 30 28 28 29 33 36 38 41 45 48 50 51 54 57 63 66 72 70 63 50 43 43
65 66 67 65 61 54 49 46 46 49 52 51 50 50 43 41 51 53 50 42 42 42 43 43 41 43 44 38 37 36 31 30 28 27 27 29 33 35 38 43 46 47 49 50 54 59 63 68 69 66 56 44 42 43
64 56 49 47 42 39 36 38 41 38 37 42 41 39 33 35 48 48 44 43 40 41 43 41 44 44 40 37 36 34 28 25 25 25 26 28 32 35 40 43 44 45 47 51 55 60 64 69 66 61 49 40 41 43
45 39 28 25 27 29 29 30 30 32 35 38 38 37 38 43 48 46 42 39 34 36 36 36 38 39 39 37 35 32 26 23 22 23 25 29 33 37 40 42 42 44 47 52 56 60 66 67 63 54 42 39 42 43
32 24 22 25 27 27 29 32 35 37 37 37 35 36 42 45 43 41 40 41 34 35 35 36 39 38 34 31 32 28 23 20 21 22 27 31 34 38 40 40 42 44 49 53 58 61 66 63 58 47 40 40 43 44
29 28 26 28 30 36 37 34 32 31 30 30 30 33 36 38 36 37 36 35 36 35 33 34 34 32 30 33 28 22 20 20 21 25 29 32 36 39 38 39 41 46 50 55 58 64 63 59 52 42 39 42 44 44
32 27 30 32 32 32 25 24 25 22 21 23 24 24 29 32 33 37 34 33 36 34 31 31 32 33 33 27 23 20 19 20 23 27 31 35 36 36 37 38 43 48 52 56 61 61 58 53 45 39 41 43 43 44

GFSWCAN_500_spd_081.txt.gz
Wind_Speed
47 24 5 6 4 2 6 6 11 15 16 17 21 23 22 22 23 26 29 30 31 32 30 28 27 25 24 23 20 18 14 13 13 10 8 7 8 9 9 8 7 6 5 4 5 6 7 8 9 11 15 17 20 23
43 32 2 8 7 9 6 4 4 7 10 12 16 19 20 20 21 24 25 26 27 26 25 25 24 22 21 19 18 16 15 14 12 10 9 8 8 6 5 4 3 4 5 6 7 10 12 15 16 18 21 23 26 29
36 37 4 9 10 12 14 8 5 1 3 10 14 18 18 18 19 19 19 20 20 20 20 21 20 19 18 17 16 14 12 11 10 7 6 4 3 3 4 5 7 8 9 11 12 14 16 18 20 22 24 26 29 31
30 36 2 17 15 11 14 15 9 8 6 8 11 13 15 15 13 12 13 12 14 15 14 13 13 12 12 11 9 8 6 5 4 4 3 4 5 7 8 8 9 10 13 13 14 16 18 20 22 23 26 28 31 33
24 26 19 14 19 16 16 18 18 14 14 10 10 12 12 13 13 11 9 8 7 7 8 7 6 6 5 4 4 3 3 4 4 4 5 6 8 9 9 9 11 13 14 16 18 18 19 21 24 25 28 30 33 34
18 19 23 6 22 23 21 18 22 23 19 19 14 15 15 14 13 13 10 9 6 4 2 1 2 3 3 3 4 4 4 4 5 6 7 8 10 11 11 11 14 15 16 17 18 20 22 24 26 28 30 32 34 37
16 17 14 19 5 23 25 24 23 26 26 24 22 20 19 20 19 17 14 11 10 8 6 5 5 4 5 6 7 7 8 8 8 8 9 11 13 14 15 15 15 16 17 18 19 21 23 25 27 30 32 34 37 40
19 15 17 12 14 7 27 32 29 27 26 26 29 29 26 23 25 22 21 18 15 14 11 10 9 10 10 11 12 12 11 10 10 11 11 12 15 16 17 18 19 19 19 19 21 23 26 29 32 33 35 38 41 44
23 17 18 15 12 12 9 29 35 34 31 30 25 22 28 31 28 28 26 25 23 20 18 16 15 14 14 15 16 16 14 14 14 14 15 17 17 17 19 21 22 23 22 23 25 27 30 33 36 37 39 42 45 46
26 21 19 19 16 15 12 14 21 38 40 36 33 28 25 23 28 32 30 30 29 28 23 21 19 18 18 18 18 20 20 20 19 19 18 18 20 20 21 23 24 26 27 27 28 31 34 37 40 41 43 46 47 49
29 26 23 20 20 17 15 13 17 18 35 38 37 36 34 30 27 30 34 34 32 31 31 30 25 24 22 23 21 21 24 24 23 22 22 20 23 23 24 25 26 28 29 28 30 33 36 39 43 44 46 48 51 53
31 31 25 24 22 22 20 14 14 15 18 34 39 39 41 42 38 34 31 32 30 29 31 35 34 30 29 27 25 26 27 27 26 25 25 24 27 28 27 26 28 29 30 30 32 35 38 41 44 47 49 51 53 55
32 34 30 28 26 24 25 21 18 17 15 19 29 42 41 45 46 41 33 29 31 33 31 30 38 38 36 34 32 30 33 32 30 30 24 28 29 31 31 28 30 31 31 32 34 36 39 42 45 49 51 53 54 55
33 36 32 31 31 27 30 29 28 24 19 17 16 20 37 47 47 46 43 41 39 37 35 32 32 40 43 41 40 38 38 39 37 32 28 31 32 33 31 29 31 33 33 34 35 37 40 43 47 50 53 55 56 58
37 38 35 33 37 34 33 32 34 36 26 20 19 18 18 21 37 51 50 47 44 42 43 40 37 36 43 46 44 43 42 42 37 30 35 33 30 32 30 29 32 33 34 36 36 38 41 45 49 53 55 57 58 61
39 38 33 38 39 40 37 36 36 41 37 29 19 20 20 21 21 31 49 51 47 46 46 44 42 41 40 45 48 47 46 39 33 33 38 39 34 33 31 30 33 35 35 37 37 39 42 47 51 55 57 58 60 65
41 34 38 41 42 41 41 40 41 43 46 37 19 18 22 21 25 27 37 48 50 47 47 45 43 44 43 42 44 46 37 34 37 40 40 39 38 36 33 32 34 35 36 38 39 42 45 49 52 56 58 59 63 67
40 39 44 45 43 43 44 44 45 47 45 36 28 20 25 22 26 27 31 43 48 48 50 48 46 45 44 44 41 38 39 39 40 41 42 41 40 39 35 34 35 36 37 39 41 43 46 50 53 57 59 61 65 70
46 47 50 49 47 49 49 49 48 48 46 41 36 21 24 25 25 28 28 34 48 51 54 54 53 48 44 41 40 40 41 43 42 43 44 43 43 43 38 34 35 36 38 40 42 44 48 51 54 58 60 61 66 72
54 54 56 53 52 53 54 53 51 52 51 45 38 34 28 27 28 29 29 31 37 53 60 56 47 50 49 43 40 41 41 41 43 44 44 43 43 42 38 34 34 35 38 41 42 45 48 51 55 59 60 63 67 73
55 56 57 57 57 58 58 57 54 55 56 52 45 43 42 32 30 29 33 34 35 37 53 51 47 50 54 51 44 42 44 42 41 43 44 44 42 40 36 32 31 35 38 39 41 45 48 52 57 59 60 64 69 73
60 58 58 60 61 62 62 62 58 57 58 57 52 50 49 44 34 30 31 41 38 37 41 47 51 55 55 50 47 42 40 41 41 41 45 41 38 37 33 29 30 35 38 38 41 45 49 53 56 58 60 64 70 72
61 60 59 60 61 65 67 64 61 60 59 58 55 54 54 49 44 41 44 44 42 46 43 44 58 58 57 53 50 43 38 40 41 43 40 36 37 35 30 27 31 35 37 38 42 45 49 53 55 57 61 65 70 71
62 61 62 65 67 68 65 65 63 62 61 58 56 56 58 54 50 51 53 46 40 49 53 44 56 62 59 56 53 46 41 41 42 43 35 35 35 32 28 27 32 34 35 38 42 45 49 52 55 57 62 65 70 69
67 67 68 70 69 68 69 67 64 62 60 58 59 61 60 56 58 59 58 48 45 49 50 50 56 63 61 54 55 54 46 43 40 33 31 34 34 31 28 29 31 33 35 38 42 45 49 52 54 58 62 66 70 67
69 71 70 67 66 67 68 68 64 63 63 63 65 68 62 59 63 66 62 42 43 47 49 49 54 59 60 52 53 54 48 36 31 31 33 35 35 30 29 30 31 31 34 39 42 45 49 51 54 59 62 67 68 62
70 70 67 66 66 65 66 67 67 65 67 68 66 63 60 65 67 63 47 43 44 43 47 48 52 54 51 51 53 53 42 36 31 34 34 33 31 28 29 31 29 30 34 38 41 45 48 52 55 60 64 68 65 57
67 65 62 62 64 66 68 68 68 68 67 64 61 62 63 66 58 39 36 36 38 43 44 42 47 44 46 46 49 48 46 39 38 39 36 34 31 28 30 29 29 31 34 37 41 44 48 52 56 60 65 65 61 52
61 61 64 66 68 69 69 66 61 58 53 52 53 54 52 43 33 32 34 38 38 33 33 38 39 38 44 45 44 45 44 39 37 34 32 31 29 29 28 28 29 31 34 37 40 44 48 52 57 62 65 62 57 48
61 64 64 62 61 59 55 52 47 46 45 41 39 34 31 27 29 31 34 35 29 23 27 32 34 37 39 39 38 39 38 36 31 29 28 28 27 26 27 28 29 30 33 36 39 44 48 53 58 62 60 58 52 45
49 48 48 47 45 42 42 38 37 35 32 29 27 26 26 29 29 29 28 29 21 16 22 25 32 36 38 36 37 38 36 33 31 29 28 28 28 26 26 27 28 29 33 35 40 44 49 54 59 59 58 54 48 45
40 39 35 38 37 33 31 30 27 26 25 24 25 27 28 29 25 24 24 26 20 16 21 24 30 33 35 36 36 37 38 33 26 26 28 28 25 26 26 26 27 29 32 36 40 45 50 55 57 56 55 50 46 46
31 30 30 31 34 32 28 27 25 24 22 22 23 26 27 27 26 22 24 23 20 21 23 28 30 33 33 32 35 35 29 26 26 27 27 26 25 26 25 24 27 29 32 36 41 46 51 55 54 53 52 46 45 47

GFSWCAN_500_spd_084.txt.gz
Wind_Speed
35 38 16 4 3 3 8 9 11 15 16 20 23 27 29 30 31 31 31 30 30 30 28 25 24 19 18 17 15 14 12 13 13 12 12 13 13 12 11 10 9 9 8 8 8 8 10 12 13 14 17 19 21 22
26 36 31 5 7 6 1 1 4 7 9 11 14 18 20 22 23 24 24 24 23 23 22 21 20 19 18 16 15 14 13 12 11 11 10 9 9 8 8 9 9 9 9 10 11 12 12 14 16 17 19 20 22 24
21 27 31 6 11 11 8 3 3 3 5 6 8 10 12 13 13 15 17 18 18 17 18 17 15 14 13 13 12 10 9 8 8 7 6 6 6 7 8 8 8 9 10 11 12 12 14 14 15 16 18 19 22 25
21 21 26 23 13 14 13 9 6 6 7 7 5 5 5 5 6 7 11 11 11 11 11 10 10 9 8 8 7 7 7 6 6 6 7 7 7 7 8 8 9 10 11 12 11 12 14 16 17 18 20 22 25 28
18 21 19 24 18 20 16 15 13 11 11 11 10 8 6 4 3 3 3 3 4 4 5 6 6 6 6 7 7 7 7 7 7 7 8 10 10 10 10 11 12 12 12 13 14 13 15 18 20 21 22 25 28 30
21 18 21 15 20 15 22 23 19 15 16 17 16 15 14 12 10 7 7 6 4 4 3 3 5 6 7 7 8 8 8 8 8 9 10 11 11 11 11 13 15 15 14 14 14 14 17 20 23 26 28 30 33 35
24 18 23 19 13 16 15 25 26 22 19 20 21 19 20 19 19 17 15 13 12 11 9 8 7 7 9 10 11 12 11 11 11 11 13 14 15 15 14 15 16 16 16 17 17 18 21 24 28 30 32 34 36 39
27 21 21 25 18 14 10 15 28 29 27 24 23 23 23 22 23 20 20 21 22 19 17 15 13 13 13 13 13 14 15 15 16 16 16 17 18 18 18 18 20 20 20 20 22 22 24 26 29 32 34 37 39 42
30 25 21 26 24 22 18 8 9 21 29 30 30 27 26 23 26 27 25 23 23 25 25 23 22 20 18 18 18 18 18 19 19 20 22 21 22 20 19 20 21 22 23 24 25 26 25 27 31 33 37 39 41 44
33 30 25 26 27 27 25 18 11 6 13 28 34 36 34 29 28 27 28 28 27 26 26 28 31 28 26 24 23 22 22 23 23 24 26 22 21 23 22 22 23 24 25 26 27 28 28 29 33 36 39 41 43 47
36 34 29 28 28 29 30 25 20 15 9 9 18 34 34 37 34 32 31 30 30 30 28 28 32 33 33 32 31 30 29 29 28 26 28 25 22 26 24 26 27 27 28 29 30 31 30 31 34 37 40 42 46 50
39 39 34 31 30 29 32 31 27 22 17 13 11 14 23 24 33 40 39 35 34 34 31 32 32 33 35 36 36 37 37 37 36 33 31 23 25 29 28 29 30 31 32 32 33 33 33 33 35 38 41 45 49 52
42 42 39 35 32 31 32 34 31 29 26 20 17 12 10 13 15 19 32 37 38 41 39 35 31 29 31 33 38 42 43 43 42 42 34 23 27 29 33 33 32 33 33 33 35 36 36 36 36 39 42 47 51 54
45 44 43 41 36 34 33 34 34 35 30 29 23 17 16 11 11 13 15 25 35 40 42 42 41 38 36 36 37 37 42 46 48 44 33 34 33 32 34 36 35 33 34 35 36 38 38 38 38 40 44 48 52 55
48 47 46 44 41 38 35 37 35 37 35 35 31 25 14 17 16 14 16 18 22 30 41 45 48 48 43 40 41 42 41 41 42 38 35 36 34 36 37 37 38 39 37 36 37 38 39 39 40 42 45 49 53 55
52 52 50 44 44 43 41 41 38 37 37 39 34 29 20 22 25 22 22 21 20 23 26 36 49 52 47 44 40 41 43 41 39 38 39 39 37 39 41 40 41 42 41 41 38 38 40 41 42 44 46 50 54 56
57 56 50 48 47 47 47 46 42 40 40 40 30 31 26 28 29 26 26 25 25 25 26 28 34 44 53 50 40 39 41 41 43 42 42 42 40 40 41 42 43 45 43 43 42 39 40 42 44 45 47 50 55 56
59 57 54 51 51 51 50 47 46 45 42 38 31 33 31 31 32 31 31 30 27 30 27 23 25 31 44 46 36 38 41 42 43 44 45 47 46 45 45 45 45 48 45 44 44 41 39 42 44 46 48 51 55 56
60 59 57 54 54 54 53 51 48 48 43 38 35 34 35 31 34 37 37 37 33 34 30 22 25 29 31 38 39 42 43 42 43 47 47 48 49 50 50 50 51 52 47 42 42 41 39 42 44 45 47 51 54 56
60 60 58 56 56 59 57 54 50 48 45 40 35 36 37 38 36 38 40 42 43 45 37 23 25 29 26 31 42 47 46 45 45 46 47 49 51 51 51 52 53 50 42 39 40 39 37 41 44 45 48 51 53 56
60 60 60 62 60 60 60 55 49 45 48 47 44 41 43 41 40 40 42 43 49 48 42 32 31 34 35 35 36 43 51 51 50 49 48 48 53 55 53 53 53 42 38 37 39 36 37 41 43 45 47 50 52 56
51 56 59 60 61 59 58 57 56 56 55 52 51 51 49 49 47 44 43 46 48 42 41 42 40 39 40 43 44 48 52 55 54 54 50 48 51 54 54 55 45 37 34 37 38 36 38 40 42 45 46 49 52 56
57 56 60 62 60 57 58 56 53 51 51 53 56 57 56 53 50 48 47 47 45 40 43 45 45 45 45 47 47 52 53 57 57 55 55 51 49 52 55 50 41 36 33 36 36 36 38 40 43 45 46 48 52 56
59 58 59 62 63 62 60 61 60 56 54 57 61 59 57 57 53 51 49 48 47 49 48 48 49 49 51 52 56 58 58 56 58 58 56 53 51 50 54 48 40 34 32 34 35 37 39 41 43 44 45 48 52 56
62 65 63 59 59 59 62 63 61 60 60 58 59 59 58 58 56 55 51 50 51 53 54 54 56 58 55 57 60 62 64 62 54 56 56 54 53 51 48 45 40 31 33 33 34 37 40 41 42 43 45 48 51 56
66 66 64 57 52 51 55 60 62 58 58 59 57 59 59 58 59 58 53 52 57 60 61 62 63 62 59 59 60 63 66 62 55 54 53 50 53 47 42 42 33 33 34 33 33 37 39 40 41 42 45 48 51 57
69 60 54 51 51 49 51 53 54 54 58 57 56 59 60 62 60 56 57 61 62 64 66 68 70 66 64 63 63 65 65 61 53 49 49 50 47 38 36 34 31 33 34 32 33 35 37 39 40 41 44 48 52 57
58 51 48 46 46 46 50 53 57 59 59 59 60 60 62 62 58 61 64 65 66 68 70 70 68 66 64 62 59 60 57 53 46 45 46 43 36 33 34 32 32 35 36 34 33 35 36 38 39 41 44 48 53 55
50 47 50 50 51 53 52 52 53 56 57 58 59 63 63 64 64 66 68 69 66 65 65 65 63 62 60 57 52 50 45 42 39 40 38 36 32 35 32 33 37 39 35 33 32 34 36 38 37 41 44 49 53 53
50 50 51 51 51 51 52 56 57 60 61 61 63 64 66 68 68 67 64 61 61 61 58 55 53 52 50 46 41 37 36 36 36 38 39 35 37 33 28 32 35 35 33 30 31 34 35 36 37 41 45 50 51 51
47 48 50 53 54 53 54 56 59 60 60 61 66 69 68 63 61 59 58 55 54 52 49 44 44 36 34 36 35 34 32 32 35 36 33 33 30 25 27 31 32 32 31 30 31 33 34 35 38 42 47 49 49 49
46 46 48 50 51 52 53 55 58 59 61 64 65 63 59 57 55 48 45 45 42 39 35 35 29 32 35 35 35 33 33 37 32 28 30 32 26 23 27 28 30 32 31 30 30 32 33 35 38 43 47 47 47 46
49 48 50 52 52 49 50 54 57 61 63 61 57 53 51 49 43 35 33 34 32 31 31 29 33 36 36 36 35 29 33 37 37 40 34 26 22 25 26 28 30 31 31 30 29 30 32 35 40 44 45 45 44 45

GFSWCAN_500_spd_087.txt.gz
Wind_Speed
31 30 31 29 9 1 3 5 8 11 14 16 19 22 24 26 26 27 28 28 27 27 27 25 23 20 19 17 15 15 14 14 14 14 14 13 12 12 12 10 9 9 9 9 9 9 9 9 10 10 11 12 14 16
26 28 28 26 18 9 4 5 3 5 8 10 11 12 17 18 20 21 22 23 22 22 20 20 19 18 17 16 16 15 14 14 14 13 12 11 11 10 9 9 9 9 9 9 8 9 9 10 11 11 12 12 15 17
26 27 26 24 24 13 10 10 7 7 7 7 9 9 8 11 13 14 15 15 17 16 15 15 15 14 14 13 12 12 11 10 10 10 10 10 9 9 9 10 10 9 9 9 8 8 9 11 13 14 13 14 17 19
24 24 27 26 20 21 13 16 14 11 9 9 8 8 6 5 4 7 9 9 9 10 10 11 11 11 10 11 10 10 10 10 9 9 9 9 10 11 11 11 10 10 9 10 9 9 9 11 13 15 16 17 19 21
26 23 26 27 20 20 15 18 19 17 15 14 14 13 11 10 8 6 3 1 3 4 4 5 6 7 8 9 9 9 9 9 10 9 10 10 10 10 11 13 13 12 11 10 10 10 12 14 16 18 20 22 24 25
29 24 23 29 24 19 18 14 20 24 20 18 17 16 17 15 14 13 11 9 7 5 3 4 5 5 4 4 5 6 8 9 10 10 11 12 13 12 11 12 12 13 13 13 13 14 16 18 20 21 23 25 26 29
31 27 24 27 27 23 17 15 16 20 26 23 21 19 20 20 20 19 17 15 14 13 12 11 9 9 11 11 11 11 10 10 12 13 14 15 15 15 16 14 13 13 13 14 15 17 19 20 22 23 24 27 28 31
34 31 28 27 29 27 21 16 14 17 19 24 28 26 25 25 24 22 23 22 23 20 19 18 18 17 15 16 17 17 18 16 17 15 17 17 18 19 19 18 17 18 19 20 20 21 23 25 25 25 27 30 31 33
37 33 32 31 31 30 27 22 17 16 19 19 21 28 30 30 30 28 27 26 25 25 26 24 24 25 25 25 24 24 22 22 21 21 23 21 17 22 20 21 21 22 22 23 25 26 28 29 31 30 30 32 34 36
39 37 34 34 35 33 30 25 24 22 17 20 18 17 23 27 33 37 35 33 29 27 27 27 28 29 30 30 30 31 31 30 30 28 28 25 15 28 23 25 25 25 26 25 27 29 30 33 34 34 34 35 36 38
45 40 38 37 38 36 34 31 28 27 23 21 21 17 15 15 20 32 40 38 34 29 27 27 30 30 32 32 34 35 37 38 38 37 36 35 23 30 28 27 27 29 30 30 32 33 34 35 37 38 38 38 38 39
52 43 43 40 40 39 37 36 33 30 30 25 23 22 16 11 13 15 14 25 32 36 31 31 30 30 33 36 39 40 41 43 44 43 42 38 30 31 35 32 33 32 32 33 36 37 37 37 38 39 41 40 39 41
60 53 48 44 43 42 40 40 39 36 34 29 27 25 22 19 15 14 12 11 18 24 34 35 36 38 38 40 43 43 44 41 40 39 35 32 32 33 37 36 35 37 36 36 40 41 39 40 41 40 40 41 41 42
58 56 52 47 43 43 44 44 42 39 39 36 34 31 27 19 18 22 18 17 18 14 13 17 20 25 30 35 39 47 51 50 44 39 38 35 33 33 35 37 37 39 40 41 43 45 46 46 44 45 42 41 41 43
57 52 50 49 46 46 47 46 45 43 43 40 38 37 26 22 23 26 25 21 21 20 22 17 14 14 19 24 28 32 43 49 45 43 39 37 36 34 33 37 41 42 44 45 46 48 49 48 45 46 47 43 42 43
57 53 53 51 50 49 49 48 46 45 47 45 44 34 27 26 28 31 31 26 26 26 24 25 20 20 19 21 22 27 28 33 41 45 41 38 35 35 36 35 37 42 47 48 50 52 51 52 49 47 48 46 43 43
57 56 53 54 51 53 52 51 50 49 50 51 41 32 31 32 33 33 33 31 30 29 30 29 23 24 17 23 21 20 22 26 31 37 40 38 37 39 39 40 41 41 44 48 52 55 57 58 53 49 47 46 42 44
58 54 55 57 56 56 55 55 56 53 52 50 40 37 38 37 35 35 36 35 33 31 35 33 28 20 19 29 29 30 23 24 26 31 36 40 41 42 43 44 44 44 45 47 50 53 57 51 46 45 46 44 42 44
56 55 52 55 56 57 58 57 57 54 51 49 43 42 40 37 37 37 38 37 37 37 39 38 29 19 29 32 34 31 29 31 31 33 35 39 45 46 46 45 46 48 50 52 53 55 56 47 45 43 45 43 41 44
50 54 55 53 55 59 59 58 55 54 53 51 45 42 44 39 37 38 38 38 38 41 44 38 30 31 30 32 35 36 35 36 35 37 40 42 45 48 51 51 50 49 51 52 54 57 53 45 44 42 44 42 42 44
61 57 58 58 59 61 63 60 56 54 55 53 49 45 45 42 41 40 38 39 40 40 39 37 39 38 37 36 36 37 40 42 40 40 43 46 45 46 51 55 56 54 54 52 54 56 46 43 42 41 42 41 41 43
62 59 61 60 61 63 64 62 59 55 54 54 51 50 49 47 45 43 42 40 39 40 41 40 41 43 43 42 43 43 42 43 44 43 43 49 54 53 52 54 55 56 55 52 56 54 42 41 41 40 41 42 41 42
67 61 62 64 64 63 62 60 59 57 55 55 51 51 51 50 47 45 42 38 38 38 39 40 39 44 46 45 47 47 47 48 48 49 50 51 56 60 60 57 52 56 56 54 55 50 41 39 39 40 41 43 42 42
71 64 68 70 66 61 55 54 54 54 55 55 50 51 54 52 46 46 40 39 41 39 41 42 43 49 51 49 49 51 50 53 53 52 53 54 56 62 65 64 57 54 56 53 50 47 38 37 38 41 40 43 43 42
67 71 75 74 66 57 55 51 49 49 48 45 48 51 49 49 49 51 49 48 41 44 45 45 44 49 54 56 53 52 54 54 56 58 57 57 59 64 64 61 55 51 53 48 46 37 36 36 39 41 40 42 43 42
69 73 73 68 63 56 52 52 50 47 48 49 50 50 50 52 52 47 46 44 50 50 50 48 48 50 52 55 55 55 56 58 59 60 59 59 61 63 62 60 53 50 46 42 36 33 35 36 37 38 39 41 42 42
73 74 65 63 61 56 53 51 51 50 50 49 46 44 47 50 49 46 45 50 53 52 53 54 53 53 53 54 54 53 55 59 58 57 58 59 60 58 55 51 47 46 39 31 29 32 35 35 34 37 39 41 41 42
62 58 58 57 56 54 51 49 46 47 50 50 48 48 46 48 47 48 49 49 51 54 57 56 54 54 53 55 56 59 60 59 59 58 58 57 52 46 42 40 39 36 26 24 28 34 35 36 37 37 38 40 40 41
54 51 50 51 53 53 51 49 46 45 43 43 42 45 48 47 48 47 47 49 52 54 54 53 54 56 56 59 57 61 63 61 60 59 54 45 40 34 31 36 39 29 25 24 33 38 37 33 33 34 37 38 39 41
47 47 45 44 43 43 43 42 40 38 40 47 51 53 50 48 47 48 50 52 53 55 54 55 57 60 60 60 60 60 61 60 57 50 40 33 29 33 39 38 32 26 21 29 33 33 30 29 31 33 36 37 39 43
40 45 47 45 42 41 37 36 39 43 47 50 51 51 49 49 49 49 51 55 57 57 58 59 59 60 60 60 56 54 54 53 45 36 30 29 31 32 31 34 31 23 26 28 29 26 25 28 30 33 35 36 40 44
41 41 40 38 39 41 44 44 43 45 48 49 48 50 51 53 52 53 57 59 59 59 58 59 59 60 57 52 50 46 45 38 29 29 28 29 31 26 28 24 23 28 27 26 24 23 25 27 30 32 34 37 41 44
37 35 37 39 42 42 40 42 44 46 48 48 51 55 58 60 57 58 59 59 59 58 60 59 57 53 49 44 37 38 37 29 24 30 29 23 24 25 27 26 25 24 25 25 21 22 24 27 30 32 34 39 42 43

GFSWCAN_500_spd_090.txt.gz
Wind_Speed
28 27 22 17 17 16 9 5 5 1 4 10 15 17 18 22 23 22 23 23 23 23 23 23 22 21 20 20 19 17 17 16 16 15 15 14 13 12 10 9 8 8 7 6 6 5 5 6 7 6 7 8 10 10
30 25 26 19 15 18 14 11 9 7 5 3 6 10 11 14 16 17 18 19 19 18 18 17 17 16 16 15 15 14 13 12 11 11 11 10 10 10 9 9 8 8 8 7 7 7 8 9 10 10 9 9 10 11
34 28 26 26 15 14 17 12 15 13 10 10 7 3 5 6 8 10 11 12 13 13 12 12 12 12 12 11 10 10 10 10 9 10 10 9 10 10 10 9 9 9 9 9 8 6 6 6 7 9 10 11 14 16
36 35 30 28 22 12 13 14 11 19 15 14 14 11 7 5 4 5 5 4 5 6 6 7 8 9 10 10 10 10 10 10 9 9 9 10 10 10 10 8 8 7 7 8 8 9 10 12 13 14 15 17 18 20
43 38 36 32 29 17 12 13 9 11 20 19 18 17 16 13 11 9 8 6 4 2 1 0 1 1 2 4 6 7 8 9 10 10 10 10 9 9 11 11 11 10 9 10 11 13 14 16 18 20 22 23 25 26
45 47 42 36 34 25 17 16 11 8 9 22 23 22 21 22 20 18 17 15 13 12 10 8 7 6 6 6 6 6 6 8 9 10 11 12 12 12 13 15 13 15 14 14 15 16 18 19 21 23 26 28 30 31
52 51 50 42 37 30 25 19 18 14 8 7 22 27 26 26 26 26 24 24 20 19 19 16 17 15 15 13 12 12 13 14 14 14 14 16 15 15 16 19 17 17 18 19 20 21 22 23 25 27 28 30 32 35
52 53 52 45 39 34 30 27 21 21 16 12 9 14 25 29 31 31 32 29 28 27 25 25 24 24 23 22 21 21 20 20 19 20 20 21 21 22 21 26 21 22 24 24 25 27 28 28 29 31 33 34 34 35
53 53 52 49 41 38 33 33 28 24 24 19 16 12 14 12 17 29 38 36 33 33 31 28 31 31 32 31 31 30 30 30 29 29 29 29 26 28 34 30 27 29 30 29 30 30 30 31 33 35 37 38 39 39
54 54 55 54 44 41 37 35 35 31 27 27 25 19 16 16 12 16 23 28 31 34 34 30 34 33 35 35 35 34 34 35 37 37 38 37 35 35 35 40 39 36 35 35 35 35 35 35 37 39 40 41 42 42
59 55 55 59 49 43 40 38 38 37 34 31 32 28 22 19 16 12 12 14 17 21 26 30 34 36 39 37 35 36 37 40 43 39 40 39 41 43 42 41 42 41 38 37 37 38 39 39 39 41 44 45 46 47
66 65 60 59 56 45 42 42 40 39 38 37 36 35 30 25 22 20 14 16 14 11 13 23 32 37 40 41 42 41 40 43 42 37 40 40 40 42 40 35 35 39 38 37 38 40 41 43 44 45 46 48 48 50
70 69 65 63 58 49 43 43 44 41 39 40 41 41 39 35 30 23 22 22 19 13 12 11 15 18 24 21 24 31 30 34 31 32 35 41 42 42 40 34 31 31 34 37 38 40 42 45 47 47 49 51 56 54
72 68 64 64 58 50 46 44 45 45 43 43 42 44 44 43 33 29 31 29 25 22 19 16 15 15 16 18 20 23 26 25 24 30 31 29 31 36 37 33 30 30 31 33 35 37 41 46 50 53 53 53 57 57
66 63 62 63 55 51 46 47 47 46 44 46 45 46 47 41 37 35 35 35 31 28 27 25 24 23 21 21 19 26 27 24 26 26 22 24 22 26 31 34 34 33 33 34 36 39 41 44 46 48 50 52 52 53
64 59 58 57 55 52 47 48 50 50 49 49 49 48 39 37 39 38 39 41 39 34 34 30 30 28 27 22 22 30 30 27 27 25 27 26 25 25 27 30 34 36 37 39 41 43 44 45 47 50 53 56 54 53
63 61 60 56 50 49 52 54 54 55 56 54 51 44 36 38 40 42 41 43 43 40 39 36 32 34 27 23 28 33 35 31 28 27 27 26 29 30 30 33 37 40 43 45 44 45 47 47 48 50 53 54 55 53
75 63 51 53 52 54 56 57 60 62 57 54 48 44 40 39 40 42 43 44 43 43 43 42 39 35 25 27 33 35 34 36 34 33 32 33 33 34 33 34 37 40 43 47 52 53 52 52 51 51 53 53 52 51
74 67 56 56 56 57 59 61 63 60 55 51 50 49 45 42 42 43 44 44 45 44 44 42 41 29 31 32 33 34 35 37 39 36 38 39 38 40 40 39 41 44 46 48 49 51 54 56 56 53 53 51 51 48
71 68 60 61 59 63 63 61 60 59 58 55 54 51 49 46 44 43 44 43 43 45 46 39 29 31 31 31 32 34 34 36 38 39 38 39 40 43 44 44 44 47 49 51 53 55 56 51 52 51 51 49 48 48
66 60 64 64 64 66 66 62 57 54 57 58 58 54 53 49 46 45 45 43 42 43 38 31 30 31 32 33 34 34 35 35 35 36 36 38 39 42 45 45 44 46 49 52 54 57 60 55 49 46 47 47 46 43
64 68 69 70 69 71 70 64 58 53 51 55 59 56 53 52 47 46 48 47 40 35 33 36 33 33 34 34 35 34 35 37 39 37 39 40 40 42 46 51 52 51 52 53 54 56 60 52 47 43 44 45 44 41
58 68 67 68 71 72 69 66 63 58 53 51 54 58 55 53 50 49 48 43 39 34 34 34 33 32 33 33 33 35 37 40 41 45 44 43 49 47 48 51 54 55 56 56 57 57 55 48 45 40 41 42 40 39
54 60 66 70 71 70 67 63 61 56 54 52 50 53 54 52 50 50 48 41 37 39 39 35 34 32 33 33 36 38 41 42 44 48 50 49 49 49 51 52 54 58 59 59 57 55 52 47 40 38 39 39 36 38
55 55 62 66 66 62 61 58 54 51 50 48 47 48 50 52 51 52 51 44 41 40 40 37 37 36 36 39 43 43 44 44 46 50 51 53 51 52 53 54 55 55 55 54 52 53 45 38 34 34 37 34 34 36
62 60 60 62 63 61 60 58 54 49 48 49 47 45 45 47 48 46 41 37 40 41 40 36 37 36 38 41 43 44 47 49 51 50 50 52 51 54 54 54 54 54 53 51 50 42 32 29 31 35 34 32 33 35
61 64 56 47 50 54 59 59 54 52 52 50 49 47 47 44 41 40 34 42 43 42 41 39 40 42 43 44 46 47 49 51 51 50 50 52 53 55 55 55 54 55 57 51 34 29 25 26 31 33 30 30 34 38
50 49 54 48 45 48 52 56 57 58 53 47 50 49 45 42 40 37 42 42 42 42 42 42 41 40 38 41 44 46 49 51 50 50 53 53 55 59 58 56 56 56 48 33 27 20 22 27 29 28 27 32 38 37
40 40 44 43 42 46 49 49 49 52 51 50 51 52 48 45 45 47 47 47 46 44 43 44 43 43 44 44 45 50 54 55 54 54 54 57 60 60 58 56 51 45 34 28 19 23 26 29 28 26 30 34 35 33
49 47 42 42 43 42 42 45 46 47 48 50 52 52 49 46 47 50 49 46 42 40 41 42 42 43 44 46 51 56 57 57 55 55 58 60 60 57 54 47 40 35 29 20 20 23 28 28 25 27 31 33 30 33
37 42 45 44 42 39 39 41 43 47 51 51 51 50 49 51 52 49 46 45 45 45 43 43 45 47 48 52 55 56 56 56 56 57 58 57 53 51 40 36 32 26 20 18 20 25 26 23 25 29 31 28 29 33
34 36 37 41 44 45 45 45 45 46 47 50 52 53 54 54 51 48 45 45 44 42 43 45 49 53 56 57 57 56 56 56 56 57 55 49 41 33 27 21 18 19 18 14 19 23 21 24 27 29 27 26 29 34
34 35 36 38 41 44 45 46 47 46 49 49 48 48 48 47 43 40 41 46 47 50 52 53 55 56 55 53 51 52 53 53 54 55 40 31 22 16 16 17 20 19 16 16 16 18 22 25 28 28 26 26 31 33

GFSWCAN_500_spd_093.txt.gz
Wind_Speed
26 28 30 25 25 20 16 12 10 9 4 1 5 7 10 12 13 15 16 17 17 17 17 18 18 18 18 18 17 15 15 14 13 12 11 10 10 9 8 7 6 6 5 4 3 3 3 2 2 2 3 4 5 7
27 28 33 28 27 25 21 16 14 14 13 10 5 2 1 4 7 8 8 10 12 12 12 12 12 12 12 13 13 12 12 11 11 11 11 11 10 9 8 7 6 6 5 5 5 5 5 5 6 6 8 9 11 14
32 27 32 33 29 28 25 21 15 14 18 17 15 11 7 4 3 2 3 2 4 6 7 7 7 8 8 8 8 7 8 8 9 9 9 9 9 10 10 10 10 11 10 11 11 11 10 10 12 14 15 16 18 20
34 34 32 34 33 30 29 27 20 14 15 21 19 20 16 12 10 9 7 5 3 1 2 1 2 2 2 3 4 5 6 6 6 6 7 7 8 10 11 11 11 11 11 12 14 15 17 18 19 21 23 24 26 28
36 35 37 38 37 35 32 30 27 19 14 16 24 22 23 21 19 17 16 15 12 10 8 7 8 7 6 5 5 6 6 6 7 7 7 8 9 9 13 15 14 15 17 17 19 18 19 21 22 23 24 26 28 29
40 40 39 40 44 41 35 32 33 27 21 16 17 27 26 26 26 25 24 24 22 19 16 15 14 15 15 14 13 12 13 13 12 12 13 15 16 14 14 19 25 16 21 21 23 24 25 25 26 28 29 30 32 33
46 48 43 44 46 45 46 40 37 36 29 21 18 16 24 30 30 29 30 30 29 28 26 24 23 23 22 22 22 21 20 20 19 18 19 21 22 23 20 26 29 28 27 29 30 31 31 32 31 32 32 33 34 36
46 53 48 46 49 45 46 46 38 37 37 29 24 20 17 20 28 31 31 34 35 35 34 33 32 32 32 31 30 29 28 27 27 27 28 29 29 32 32 33 33 35 36 36 37 38 40 40 39 38 37 36 38 39
57 52 54 49 51 52 48 47 42 37 39 36 32 28 25 20 19 23 19 23 30 31 36 36 38 39 40 40 40 39 39 38 35 35 36 37 38 41 41 42 41 41 43 44 43 42 40 40 40 41 42 42 43 46
63 64 61 60 57 54 54 50 47 40 40 40 39 36 31 30 27 24 22 20 16 21 21 21 34 42 42 43 45 46 43 41 40 37 39 40 43 45 43 42 43 44 43 42 41 42 40 39 40 40 42 43 45 47
66 69 67 67 63 60 59 58 53 46 43 42 41 41 38 36 34 31 30 22 20 18 16 18 25 32 38 39 45 47 46 46 45 43 42 39 37 41 41 38 38 39 40 41 37 38 39 37 39 42 44 46 48 50
76 77 77 73 71 67 63 61 59 53 46 46 43 42 44 42 40 39 33 27 28 23 19 19 18 19 23 27 29 30 31 29 26 28 28 30 32 33 33 34 32 32 34 32 32 32 33 33 33 33 36 40 44 48
84 86 83 77 75 77 69 61 59 57 53 49 46 47 46 48 47 42 32 29 35 30 27 25 23 20 19 19 20 21 21 22 25 25 26 26 28 30 31 27 28 29 28 28 29 31 33 35 36 39 41 43 45 46
86 87 84 72 72 73 64 59 60 56 54 55 51 51 50 48 50 43 33 35 38 37 36 33 33 29 26 26 24 25 28 28 27 28 27 26 29 24 26 27 28 29 30 29 29 31 34 37 40 43 45 47 48 51
81 79 78 74 69 68 61 55 52 56 57 57 58 56 55 52 45 38 38 38 39 41 42 40 37 36 34 33 30 29 32 35 34 34 31 31 29 27 28 26 31 30 29 31 33 34 35 37 40 43 45 46 48 51
72 75 75 73 65 65 61 56 55 55 59 61 62 61 58 51 43 39 40 43 43 43 44 42 41 40 40 40 36 32 37 39 40 38 36 33 32 33 32 32 35 34 33 35 38 40 41 42 43 43 41 41 43 47
69 74 74 75 66 63 59 59 57 58 61 59 63 59 54 49 46 42 40 43 45 46 47 46 44 43 44 42 35 35 40 42 42 41 39 36 35 35 36 37 39 38 38 38 39 42 47 49 51 51 48 45 44 45
65 70 72 67 65 60 66 62 61 65 59 51 59 53 47 47 47 44 41 45 45 47 50 49 46 45 44 34 31 42 44 43 41 39 36 37 38 36 36 37 39 40 41 40 40 39 42 47 51 55 57 55 49 46
62 66 66 65 70 71 66 68 67 63 56 50 49 48 47 47 47 47 45 44 47 49 50 49 52 43 30 31 36 40 41 40 36 35 35 35 34 34 36 38 39 42 44 44 45 47 47 47 48 50 53 54 52 47
60 61 58 56 61 71 81 73 66 62 55 54 51 51 48 49 49 50 48 46 48 51 51 49 42 39 37 36 38 39 40 39 34 32 33 34 35 36 38 38 40 42 44 44 47 50 51 51 52 53 54 54 48 45
54 56 55 54 61 67 67 71 71 60 57 53 53 55 53 50 50 50 50 49 49 48 47 43 40 41 40 39 39 39 39 38 34 34 34 34 37 37 39 41 44 44 46 48 49 48 53 56 58 56 54 50 43 44
43 47 59 58 58 62 67 69 64 61 57 56 55 57 56 52 50 50 52 54 52 46 43 41 43 44 40 38 41 40 38 35 35 36 36 35 36 37 39 42 44 46 49 51 53 54 53 57 59 59 57 48 40 42
44 42 61 64 52 54 59 65 63 64 60 57 61 61 58 53 51 51 55 51 47 45 43 43 45 45 43 42 41 37 35 37 37 35 37 38 39 40 41 42 45 49 50 51 55 55 55 58 59 59 56 43 37 38
46 42 51 66 59 52 52 54 60 66 65 60 59 60 57 57 50 47 44 42 41 42 42 44 46 44 42 42 39 39 40 35 33 33 37 39 41 43 44 45 48 52 55 55 57 57 58 57 60 59 48 36 33 34
48 47 50 60 57 56 49 51 58 64 62 57 57 56 58 59 55 51 41 37 37 38 42 47 49 44 40 40 41 42 44 41 40 38 41 40 42 44 47 50 52 54 56 57 58 58 57 58 55 47 37 29 28 35
51 51 52 57 68 55 47 44 50 51 55 55 55 54 54 57 56 50 40 35 33 38 45 45 46 44 43 43 41 40 41 40 40 41 45 45 46 47 49 51 53 56 56 57 58 58 59 55 45 40 32 27 29 32
54 51 47 42 47 63 56 40 42 47 52 55 52 53 56 58 54 43 39 34 34 38 38 38 36 35 37 37 37 38 38 38 38 42 44 45 47 49 50 53 55 56 58 59 61 61 59 48 40 35 26 25 29 28
54 50 46 47 48 55 56 46 40 43 47 47 51 54 54 48 42 40 42 42 41 39 33 31 33 34 32 31 31 33 35 38 41 43 44 46 48 50 53 56 57 58 61 61 61 59 56 42 30 24 21 24 25 25
47 44 45 43 43 49 64 51 37 38 42 47 50 50 48 46 46 46 46 47 43 40 40 38 37 35 33 33 34 37 40 42 44 47 47 48 51 55 58 59 60 60 61 61 61 55 44 29 25 20 24 24 24 27
42 40 44 44 42 42 43 55 41 36 40 45 50 53 54 54 53 54 52 48 45 44 43 43 41 40 40 38 39 40 41 42 43 46 48 51 54 58 61 62 62 59 59 60 54 43 26 22 17 19 24 22 23 26
40 43 47 47 39 34 39 44 55 51 49 49 49 49 48 52 56 55 54 52 48 47 46 44 43 42 40 39 39 40 41 44 46 48 52 56 60 63 61 60 58 57 57 51 37 21 18 19 19 20 19 21 25 28
38 44 41 37 38 39 41 48 55 56 50 49 48 48 50 53 53 54 51 53 50 47 46 46 45 44 45 42 39 39 41 46 49 52 55 58 58 55 54 54 53 52 43 29 19 20 23 23 18 15 18 22 27 31
39 47 43 38 40 44 46 45 43 48 51 43 39 42 50 54 51 47 47 46 44 46 47 46 47 46 45 43 43 46 48 50 52 52 53 53 51 49 49 48 45 35 24 22 21 21 18 16 14 15 18 24 27 29

GFSWCAN_500_spd_096.txt.gz
Wind_Speed
28 28 30 29 24 19 15 16 16 21 16 11 4 3 3 3 4 6 7 9 10 11 11 12 12 12 11 12 12 11 10 10 10 9 9 9 9 8 7 7 6 7 7 6 6 6 8 7 8 9 9 10 11 12
27 29 27 35 30 22 16 12 14 15 21 17 16 10 8 7 5 2 2 2 3 6 7 6 7 7 7 7 8 8 8 7 7 7 7 7 7 9 9 9 9 9 9 9 10 9 10 11 13 13 15 16 17 18
26 28 28 30 34 29 22 15 14 14 15 20 19 20 17 14 13 11 8 7 6 4 1 1 1 2 3 4 5 4 5 5 6 6 6 7 8 10 10 11 12 12 14 14 15 17 17 19 19 20 21 22 23 24
31 31 27 26 32 34 31 25 19 17 16 17 20 21 24 23 21 19 17 14 13 12 10 9 7 5 5 5 5 5 5 6 7 8 9 9 10 11 13 13 14 14 15 17 19 22 20 24 24 25 27 28 29 29
32 34 36 25 27 34 34 35 27 19 17 18 19 23 25 27 28 27 25 23 21 19 18 17 15 14 13 13 13 12 12 12 11 12 13 14 16 15 15 21 27 23 19 22 24 27 29 30 32 33 32 33 33 34
39 34 38 36 29 30 34 34 37 33 21 21 20 22 26 25 30 32 33 32 30 28 25 25 24 23 21 20 20 19 19 20 20 20 20 22 23 22 20 19 29 33 33 32 31 33 35 38 37 38 38 39 40 39
48 43 41 42 39 37 36 38 35 38 35 30 26 24 25 28 27 30 34 35 38 38 35 32 30 30 30 29 29 28 28 27 26 26 28 29 30 33 31 33 33 35 37 39 41 41 39 41 38 39 40 39 38 38
52 50 48 47 47 46 44 44 40 38 40 37 31 28 26 29 31 30 30 31 35 38 36 36 34 37 38 37 38 38 37 36 34 33 34 36 36 42 41 40 40 42 43 42 42 42 41 40 37 37 37 38 38 39
64 60 56 55 52 52 51 50 50 46 43 43 42 35 31 29 35 38 34 29 27 27 25 19 28 36 37 43 44 46 47 46 44 42 44 43 41 43 43 44 47 43 40 40 37 38 39 38 35 32 32 34 36 38
74 70 68 62 64 60 59 57 58 56 53 48 47 44 36 35 38 42 42 37 32 27 23 20 25 28 30 32 34 37 39 43 44 43 44 42 38 41 43 43 40 37 36 34 33 36 36 33 29 31 31 31 33 35
83 82 79 77 75 74 73 68 64 63 62 58 53 51 48 40 42 45 47 45 40 32 30 25 30 28 27 26 27 30 33 32 33 34 33 34 26 33 32 33 33 33 33 28 32 32 30 29 28 29 33 36 38 40
76 77 78 81 80 81 80 81 75 75 73 68 63 55 52 47 45 48 50 47 43 38 35 35 34 33 30 27 26 25 28 31 26 25 26 20 24 25 27 28 30 32 31 33 33 32 31 32 32 32 34 37 41 44
74 74 75 77 81 86 84 81 80 76 75 74 70 64 58 56 54 54 53 48 41 43 44 41 38 36 35 32 31 28 28 28 28 24 23 25 28 31 31 30 33 34 34 32 35 33 32 35 36 35 34 35 37 41
73 71 70 69 71 77 83 80 83 84 78 72 69 70 66 65 64 55 50 46 43 44 47 46 45 42 39 39 39 36 34 32 33 33 33 33 33 34 35 36 35 35 35 37 38 38 37 39 43 43 41 40 38 37
69 69 69 61 63 70 78 79 76 65 62 66 74 70 76 69 63 59 48 47 45 45 49 50 49 49 46 44 43 41 38 35 35 41 38 39 40 40 40 36 34 34 35 36 37 37 39 40 42 45 48 50 49 46
61 62 60 60 61 66 64 57 59 63 65 63 69 77 80 70 60 57 52 50 48 46 49 50 50 52 50 51 47 42 38 34 46 46 43 43 42 42 43 42 37 36 37 38 39 40 41 43 46 47 48 49 53 54
60 56 54 57 59 57 53 57 65 68 76 70 59 60 60 63 57 55 52 51 49 49 50 52 50 51 54 53 48 40 37 45 49 50 49 48 45 44 44 43 41 41 41 40 40 42 42 45 48 49 51 52 52 54
55 50 52 57 59 54 62 60 61 67 71 68 61 57 55 56 55 52 51 49 48 48 50 51 54 55 55 52 43 37 39 44 47 52 51 52 52 50 46 43 43 44 43 44 43 42 42 45 47 50 55 56 57 55
48 50 53 56 59 57 62 70 73 67 66 60 55 52 54 55 56 54 51 49 47 46 48 49 55 56 49 42 41 37 38 42 44 43 45 46 46 47 44 44 45 46 45 43 44 44 46 47 48 52 55 56 57 57
48 49 50 52 53 50 57 71 71 72 70 62 64 60 58 57 57 56 53 49 48 50 50 47 45 47 43 43 44 43 40 41 42 42 43 44 45 43 40 44 47 47 46 43 43 45 46 49 51 54 56 55 56 58
51 48 48 48 51 54 58 64 72 69 69 64 61 61 64 61 60 57 55 52 53 52 46 41 42 43 45 45 45 44 44 43 43 43 41 41 41 42 43 46 47 47 47 45 45 46 44 46 51 54 54 55 58 59
48 49 50 48 48 49 57 56 57 63 70 71 67 67 64 65 62 57 56 57 53 45 43 42 42 44 46 46 43 44 45 44 41 38 40 45 44 42 43 43 45 45 46 47 47 47 48 49 52 54 54 57 57 58
49 48 48 48 48 48 58 60 54 44 49 63 72 73 74 65 64 63 65 59 48 43 41 41 43 46 48 46 47 43 44 46 44 41 44 44 43 42 40 42 44 46 47 47 47 46 49 52 55 55 55 56 57 55
50 49 47 50 50 47 49 64 58 52 48 52 63 67 67 72 69 68 62 54 49 44 40 40 43 45 47 46 46 44 43 44 43 41 43 46 42 42 43 43 45 48 50 49 50 49 50 54 57 58 56 56 55 52
55 53 48 48 51 47 43 50 67 56 50 42 45 54 59 62 68 68 60 51 47 43 39 40 41 44 43 45 47 44 45 46 43 42 40 44 43 45 47 48 48 50 52 51 48 49 52 56 57 58 56 56 54 51
59 57 56 52 50 47 46 42 50 61 66 53 45 48 55 58 63 71 56 49 46 44 43 44 47 46 43 43 44 44 45 47 43 39 43 44 44 44 47 47 46 49 47 48 50 53 55 57 58 57 56 56 52 47
58 49 55 56 54 48 44 42 41 52 60 59 49 49 53 57 57 61 61 53 46 44 46 52 48 44 43 43 43 44 44 42 42 43 45 44 44 45 46 46 48 48 49 51 53 54 57 59 60 60 59 54 45 41
59 56 56 53 52 51 48 45 44 45 52 57 59 52 52 53 48 43 46 50 52 53 52 47 43 40 38 37 40 39 39 36 32 33 37 41 43 44 45 46 48 50 51 52 53 57 60 61 59 59 56 44 35 35
60 56 54 55 53 53 51 45 41 40 42 53 61 57 54 53 51 52 53 56 58 54 48 45 44 41 38 36 34 34 35 34 33 35 37 40 42 44 46 47 47 49 50 52 56 59 59 58 58 54 46 30 31 30
53 51 52 52 53 51 47 43 36 39 43 43 47 65 55 47 52 56 57 58 52 50 49 46 44 41 40 37 39 39 38 37 37 37 39 42 44 45 45 46 49 50 51 54 57 58 57 56 52 44 33 28 28 25
48 50 50 49 47 43 42 39 40 42 41 44 48 56 58 48 50 53 56 57 55 52 52 48 42 39 39 40 40 42 43 42 40 41 42 43 44 45 46 47 48 50 52 53 54 54 51 50 43 34 25 21 21 19
49 49 47 46 43 41 41 40 42 46 44 43 44 50 62 56 50 47 45 50 52 53 50 48 48 46 45 46 45 44 42 40 40 41 41 42 42 44 45 47 48 48 49 48 50 48 46 40 26 19 17 18 20 19
47 46 45 44 43 42 41 45 46 49 48 45 42 42 54 62 48 35 37 45 48 48 51 55 54 51 48 46 45 44 42 41 42 42 42 43 44 45 46 44 41 42 43 45 48 46 38 27 20 22 18 18 19 19

GFSWCAN_500_spd_099.txt.gz
Wind_Speed
23 22 20 15 16 13 14 12 8 12 9 8 13 11 10 10 9 8 5 5 5 5 5 5 5 5 6 7 7 7 6 7 7 7 7 7 7 8 9 9 10 10 10 10 10 11 11 13 13 15 16 16 18 19
26 24 24 20 16 15 16 15 10 8 10 11 10 13 15 14 15 13 12 8 6 4 4 4 4 4 3 3 3 3 4 4 3 4 4 4 5 6 8 10 12 13 13 14 17 17 16 17 18 19 19 21 22 23
29 29 30 26 20 15 14 16 18 16 13 13 13 15 11 16 19 20 18 17 13 11 10 10 9 8 8 8 7 8 8 8 7 6 7 9 10 11 11 12 15 16 16 16 19 24 24 24 27 29 29 30 31 31
32 30 34 33 30 22 17 17 15 20 17 14 15 15 19 14 14 20 25 24 23 19 18 17 15 15 14 13 13 14 15 15 14 15 15 15 16 15 15 18 21 22 21 22 23 27 29 31 32 34 34 35 36 36
39 35 35 38 35 33 27 23 19 17 22 20 18 18 16 20 19 16 19 26 29 28 26 24 24 23 22 20 19 19 19 19 21 21 22 22 23 22 19 20 30 31 30 32 30 31 32 35 37 36 35 34 34 36
43 38 37 40 40 39 38 32 29 22 21 22 22 22 24 22 25 24 22 21 26 30 31 32 31 30 28 29 29 28 27 26 25 25 27 27 30 29 25 24 31 32 35 37 38 43 37 37 35 35 35 32 29 29
45 44 41 40 45 44 45 42 36 33 31 30 25 25 24 26 26 29 30 27 24 26 27 27 30 34 38 37 37 37 37 37 36 34 32 35 36 37 34 37 36 38 39 39 41 35 33 33 35 36 33 29 24 24
56 52 50 47 45 47 49 52 48 42 40 37 36 34 31 28 29 31 34 34 33 31 26 23 22 24 31 36 39 40 42 44 43 44 40 41 44 44 41 44 44 43 42 38 33 29 33 31 34 35 33 29 30 28
64 61 60 55 55 54 52 52 54 54 50 46 43 43 41 39 37 37 36 37 37 37 38 26 25 28 26 31 31 33 34 34 31 31 33 37 36 35 40 42 41 37 36 30 28 30 27 32 34 32 32 34 35 32
75 70 67 66 62 61 62 60 59 59 59 58 57 53 49 52 48 44 43 42 41 39 39 35 33 34 34 33 33 31 30 30 28 25 28 28 25 25 33 36 34 30 28 28 28 32 31 35 33 32 33 35 35 36
82 79 78 74 72 70 66 67 69 68 68 66 65 65 63 61 62 61 56 53 49 43 38 36 39 42 39 37 38 37 36 36 31 26 25 23 14 26 26 22 22 23 25 27 30 33 34 33 34 32 31 36 38 37
81 81 80 76 78 73 72 71 75 72 72 74 71 69 70 70 66 66 63 62 57 47 41 41 42 47 45 45 45 42 40 40 35 31 25 21 22 21 20 20 20 22 25 28 32 33 35 35 36 34 34 35 35 37
77 72 68 70 68 66 69 71 76 76 78 82 80 77 74 72 73 70 66 67 58 49 47 43 44 48 48 46 47 48 48 44 41 36 34 36 30 27 25 26 26 27 29 30 33 34 37 38 39 38 38 39 37 38
67 68 66 67 67 68 66 68 71 73 77 81 82 82 81 76 70 68 73 73 66 56 49 49 45 47 49 48 49 49 52 52 50 44 43 44 41 37 35 34 35 36 36 36 37 38 39 41 43 45 44 42 42 41
66 65 64 62 61 62 63 65 67 66 61 63 75 79 79 73 73 72 73 72 59 53 48 48 49 47 49 50 47 49 48 49 48 49 51 51 48 46 44 41 41 40 40 38 41 43 45 45 46 46 47 47 46 45
63 61 59 60 58 57 61 62 65 67 66 65 70 72 75 75 76 74 64 64 62 52 51 51 51 51 51 50 47 47 48 42 43 48 50 51 53 53 51 47 46 44 43 43 45 47 48 46 50 50 51 51 49 50
65 58 57 58 58 55 56 61 63 66 66 72 68 65 69 72 68 67 64 57 55 56 53 52 52 52 52 51 47 45 40 36 41 45 48 46 46 48 46 44 44 45 46 47 47 47 46 47 49 51 50 50 51 51
60 56 56 54 56 56 57 57 59 62 68 67 69 65 69 65 58 55 56 54 53 54 56 55 53 53 52 50 49 46 43 39 38 42 47 48 45 44 44 40 36 36 39 43 45 45 47 47 49 51 49 48 48 49
53 54 54 53 52 54 57 56 52 51 49 56 64 60 62 60 57 61 60 57 56 56 57 57 57 48 45 44 43 45 41 39 43 43 45 45 44 42 42 39 37 38 41 45 43 44 45 46 48 48 46 46 48 50
50 50 51 52 54 56 57 56 59 62 57 55 57 60 66 70 65 67 71 68 62 62 64 62 49 43 42 43 44 44 43 43 44 45 43 44 46 44 42 41 41 45 46 46 44 43 44 46 46 45 45 46 47 50
50 48 51 53 53 54 52 57 58 61 62 60 57 66 69 66 62 63 64 61 65 65 64 56 50 47 46 45 46 46 43 43 43 45 44 43 45 45 44 43 44 45 46 47 45 43 43 41 44 45 45 45 47 49
47 51 53 53 54 58 61 60 57 55 58 62 62 70 77 72 62 57 61 67 65 57 53 52 52 52 50 49 49 49 50 48 45 44 43 43 42 45 44 41 44 44 45 47 46 44 40 42 44 44 46 48 48 48
51 52 52 52 55 57 58 55 54 53 55 57 61 63 65 74 79 77 77 75 65 56 53 53 51 51 52 50 51 52 50 49 47 46 45 44 44 44 45 42 46 45 45 47 48 46 42 40 44 48 49 47 47 48
52 53 54 53 48 53 56 54 52 51 50 51 54 56 57 60 67 77 82 81 70 63 59 58 57 52 50 48 48 47 45 46 45 45 44 44 45 43 40 40 42 43 44 47 49 51 50 47 46 49 48 45 47 51
55 51 54 55 52 56 54 51 49 48 47 43 44 50 53 49 53 60 64 64 70 72 65 62 59 53 51 52 50 45 46 47 46 43 41 43 43 42 42 44 44 42 43 46 48 48 46 44 45 46 45 45 50 54
52 56 55 53 56 55 53 49 45 41 40 39 40 46 61 54 50 58 53 47 52 57 61 58 58 55 54 54 51 49 47 46 44 41 38 44 46 45 45 46 46 45 46 47 47 45 45 44 45 45 45 48 51 53
44 55 59 59 54 50 50 50 46 44 41 38 36 39 46 61 60 51 36 33 36 44 51 51 55 61 55 50 50 51 48 43 42 42 41 42 43 44 45 45 46 47 48 47 46 45 44 43 43 44 44 46 50 54
45 43 49 51 54 52 50 50 47 45 42 39 39 42 44 42 50 54 53 49 48 47 46 47 49 51 55 53 48 47 47 44 42 42 42 43 42 42 43 43 42 42 43 42 41 41 41 39 41 42 43 46 51 50
47 40 48 54 53 54 55 54 53 49 48 47 45 43 39 38 38 41 47 54 48 47 47 47 45 41 32 39 47 45 43 42 40 41 42 41 41 41 39 38 39 39 38 39 39 38 38 37 40 40 44 47 47 48
50 49 50 52 55 57 52 51 50 50 51 49 47 46 43 38 38 42 46 53 53 47 43 45 44 43 44 42 42 43 43 40 40 41 39 35 35 36 38 39 37 37 37 37 38 36 35 38 37 38 41 43 46 42
44 43 45 48 51 50 50 51 52 52 51 50 48 47 44 45 46 44 41 38 49 54 48 46 45 42 41 40 41 42 45 45 44 41 39 37 36 38 40 40 39 39 38 36 36 37 36 32 35 40 43 45 38 28
39 39 39 42 43 45 50 53 54 53 51 49 47 45 45 48 48 41 35 41 43 52 43 38 41 45 49 50 50 45 44 43 41 40 39 36 37 40 40 40 39 38 37 37 37 33 31 34 39 41 43 35 25 23
34 36 37 38 40 42 45 49 50 50 48 46 44 45 46 43 44 31 26 27 30 41 46 43 40 39 40 45 48 48 45 41 37 35 36 38 39 39 39 40 39 37 36 34 30 29 32 35 37 37 31 25 23 23

GFSWCAN_500_spd_102.txt.gz
Wind_Speed
30 30 26 25 19 16 12 11 9 6 6 7 10 13 14 11 9 7 4 3 5 7 7 6 7 6 5 6 7 7 8 9 9 9 9 10 10 10 10 11 11 12 13 14 14 16 15 16 17 19 20 21 22 23
30 25 26 25 22 21 18 14 12 12 10 7 7 10 12 17 18 14 12 9 6 7 9 8 8 10 10 9 8 8 9 9 10 9 9 9 11 12 15 14 17 15 15 14 16 18 20 22 23 23 24 25 25 27
32 27 25 22 22 25 24 20 17 17 15 13 12 11 10 13 16 20 21 18 15 13 11 12 13 12 12 13 14 12 13 12 12 12 12 13 14 13 15 15 19 20 18 17 21 26 27 28 28 29 29 28 28 28
37 33 29 25 24 23 27 28 24 20 19 16 15 14 13 14 15 18 17 20 23 22 20 19 17 16 16 17 18 19 19 19 19 19 18 18 19 19 18 18 23 27 24 25 23 27 29 33 30 25 25 26 27 28
39 38 37 29 28 27 27 29 32 28 24 21 17 16 17 18 17 18 20 20 21 21 25 26 26 25 24 24 26 26 26 25 25 25 25 25 26 25 20 20 25 36 30 33 31 32 34 34 26 24 25 28 27 26
41 39 42 39 38 33 31 30 32 34 30 29 24 20 18 17 20 21 23 24 24 23 23 22 25 31 32 30 31 34 34 34 35 34 33 32 36 38 34 25 33 35 36 38 37 36 33 27 23 22 25 29 26 23
48 47 46 45 45 44 40 36 35 37 36 34 32 31 29 25 22 23 24 25 26 28 27 26 24 22 28 32 33 34 35 37 38 36 36 39 41 45 42 35 47 43 41 38 35 31 28 22 22 24 25 29 24 25
54 50 50 48 50 49 47 45 44 43 43 41 37 36 36 33 32 30 31 27 28 30 28 26 26 28 33 30 34 35 35 35 33 32 29 29 33 35 28 32 38 39 36 33 28 27 21 21 23 24 27 27 25 27
66 63 59 54 53 54 54 53 52 51 51 49 46 44 42 40 40 39 39 39 39 38 35 24 26 29 33 36 37 36 37 37 36 31 30 30 26 26 32 35 36 35 33 27 27 24 19 23 26 28 31 31 31 31
76 75 74 72 69 66 62 60 58 58 59 59 58 55 51 48 49 48 48 49 51 48 45 30 31 33 35 38 41 42 42 41 41 34 32 30 26 35 35 36 36 32 27 24 21 23 23 26 30 34 36 37 36 37
79 80 78 77 77 74 74 73 70 69 65 65 65 64 62 58 58 57 57 56 55 56 53 45 38 40 40 40 44 47 48 49 50 42 38 30 28 31 32 32 31 29 26 23 23 24 26 30 33 34 34 37 37 39
82 78 77 75 77 77 76 81 78 77 74 71 69 69 70 66 64 64 62 63 63 63 61 54 52 47 43 42 45 46 46 48 51 51 46 35 36 35 34 33 33 30 28 27 28 30 32 34 34 35 36 37 38 37
68 72 75 79 75 72 68 70 72 73 74 73 73 74 73 69 68 64 64 63 65 67 68 66 58 55 49 47 46 49 52 49 49 51 45 38 40 37 37 36 37 36 34 32 32 34 38 39 38 38 39 40 42 39
60 61 65 68 64 64 68 69 67 66 69 71 74 77 73 68 69 68 67 65 70 73 73 72 71 62 54 47 49 49 50 50 50 44 44 42 41 39 38 37 36 38 38 39 36 36 40 42 42 41 44 46 43 41
60 60 59 60 62 62 63 64 66 67 65 69 73 74 69 63 64 66 68 69 68 70 70 69 69 65 57 52 45 48 49 49 46 42 44 45 44 43 40 41 40 37 35 39 41 37 39 43 45 44 44 44 41 39
61 60 58 59 60 60 61 60 62 61 63 66 69 71 63 65 66 69 70 68 66 66 60 61 60 63 57 55 56 48 50 49 46 46 48 48 48 47 46 44 43 38 34 33 34 37 40 43 43 43 44 42 40 38
63 58 59 61 60 60 61 59 57 58 61 65 65 59 60 61 59 60 64 61 62 63 54 55 56 54 56 58 54 48 42 44 47 51 53 52 52 50 49 48 46 39 33 30 31 37 42 42 41 43 43 42 37 38
62 60 60 61 62 61 62 62 59 59 61 61 56 55 55 54 53 54 60 64 63 61 62 60 57 57 57 54 50 48 48 50 51 53 51 47 46 49 49 47 45 44 35 31 30 38 43 43 45 46 44 42 37 38
62 63 62 61 61 60 60 61 60 61 59 58 57 54 53 54 57 59 61 63 64 63 60 64 67 64 52 47 44 46 49 51 52 51 49 49 47 45 44 44 43 45 41 35 34 38 42 42 44 43 41 39 38 38
62 62 60 58 58 58 58 60 60 61 60 57 56 55 58 58 57 60 63 67 72 72 74 67 63 57 54 51 52 50 53 53 52 52 48 47 47 48 45 45 44 45 46 42 39 41 43 41 40 43 40 37 39 39
58 56 56 56 57 58 59 59 60 61 59 59 54 54 58 56 54 59 62 61 69 74 70 68 63 54 53 55 52 52 53 54 55 54 51 48 44 46 47 45 45 46 46 44 43 43 43 41 40 42 42 37 37 38
50 53 55 57 59 59 60 59 60 59 58 60 58 57 58 58 59 61 65 65 67 66 66 65 62 58 54 51 55 58 57 57 54 55 53 52 50 46 46 46 46 46 43 43 44 46 46 42 44 43 42 42 42 43
45 49 53 55 57 59 59 58 59 59 61 61 56 56 58 56 56 61 67 65 62 59 63 61 59 52 59 54 48 49 53 56 57 56 56 56 54 49 47 46 46 45 43 43 46 47 45 43 43 43 43 42 42 41
45 47 51 55 57 60 58 58 57 55 56 57 55 54 54 52 50 55 59 55 50 49 51 56 65 59 58 57 49 47 50 55 52 51 51 53 51 46 46 46 47 46 46 46 46 43 44 43 41 41 43 41 40 38
45 48 50 53 57 59 59 57 54 52 53 49 50 50 48 47 48 51 52 47 41 42 45 47 53 62 71 71 67 63 60 59 56 50 45 46 44 42 41 42 44 44 46 46 45 44 44 44 43 43 41 38 37 35
46 48 49 49 50 52 53 52 49 47 47 48 47 45 43 44 46 47 44 33 28 30 37 42 42 40 42 47 59 65 62 70 64 54 45 46 45 42 40 40 41 42 42 42 44 44 44 43 42 43 39 36 32 29
48 46 35 39 42 44 45 47 46 47 49 49 45 43 44 46 45 37 25 26 31 40 39 40 45 45 44 43 43 44 45 53 59 59 47 45 44 42 40 40 39 40 40 41 41 41 40 39 37 35 32 30 27 29
44 38 37 36 39 40 43 47 50 49 47 47 47 48 48 44 33 26 31 35 33 41 51 37 32 33 30 30 32 35 39 43 45 44 50 40 41 42 42 40 39 40 40 41 38 35 33 31 30 29 28 25 27 29
46 45 41 45 44 45 47 49 51 51 50 49 45 45 43 41 36 35 36 40 37 37 40 49 53 49 42 36 34 31 31 32 33 37 41 43 38 40 42 40 38 39 39 37 36 36 34 30 29 28 25 25 27 29
40 43 48 45 51 47 43 41 42 42 46 51 50 49 50 45 39 43 44 41 38 35 35 35 33 38 46 52 44 40 37 36 43 39 40 39 41 40 41 38 38 36 34 33 33 31 29 30 31 28 26 26 28 31
27 36 46 47 45 42 40 40 41 42 46 49 45 50 51 48 46 44 42 38 37 38 37 34 33 30 37 45 43 39 36 33 30 29 32 37 42 43 41 39 40 38 34 32 31 32 31 31 31 28 25 26 29 32
18 25 38 48 47 42 40 40 42 41 43 48 47 48 49 51 49 40 33 40 40 38 38 39 41 37 37 33 51 46 41 38 36 35 30 28 31 36 39 40 40 37 35 33 31 30 30 32 30 24 24 27 30 34
23 22 25 32 41 43 34 32 33 37 41 43 43 44 45 45 44 28 28 29 34 39 40 41 37 34 33 36 35 44 48 43 41 41 38 34 28 30 32 35 38 35 32 30 30 31 31 29 25 24 25 29 31 34

GFSWCAN_500_spd_108.txt.gz
Wind_Speed
43 40 36 36 33 28 24 22 17 14 15 18 20 20 17 16 12 14 16 14 11 11 12 10 9 8 8 7 6 6 5 7 8 8 7 9 9 11 11 12 12 12 13 12 15 18 19 19 21 24 28 27 26 25
44 42 39 36 36 33 31 26 25 19 19 17 20 22 19 19 18 17 15 14 17 18 16 16 16 14 14 14 12 13 11 9 10 11 12 12 13 13 14 14 18 21 25 23 25 23 29 27 27 30 31 32 29 25
46 43 42 41 38 39 38 34 32 28 24 22 20 20 24 24 23 22 21 19 17 15 16 19 19 21 22 22 20 20 22 19 17 17 17 17 19 22 20 19 21 23 32 33 35 30 32 33 31 33 31 32 31 28
47 48 45 46 42 38 39 35 36 33 29 29 26 24 21 21 23 23 23 24 21 19 18 18 17 17 17 20 23 24 26 26 28 30 27 26 27 29 27 30 24 27 32 40 40 39 38 37 37 36 34 33 31 28
49 48 46 46 44 39 36 34 35 37 32 30 31 29 26 24 24 23 23 24 25 21 21 22 21 21 19 19 22 22 20 20 22 23 24 23 24 29 26 22 13 24 31 38 35 38 37 38 39 38 35 33 30 26
44 43 43 42 40 39 31 30 31 34 36 32 31 28 27 29 28 26 26 26 23 23 21 20 18 19 19 18 19 19 22 24 24 23 23 24 26 28 23 20 18 23 25 29 27 29 28 31 31 33 32 33 29 27
36 35 35 34 35 34 32 32 31 30 32 34 34 33 31 30 28 30 32 30 32 31 28 22 18 18 23 25 25 26 28 29 30 28 23 25 27 32 28 29 31 30 26 25 26 28 29 32 32 32 31 29 27 27
44 44 44 43 40 40 39 36 34 34 33 35 36 37 37 35 35 35 38 38 38 39 38 35 27 26 30 31 33 36 37 38 39 37 34 30 28 28 27 37 32 35 31 29 29 30 30 27 28 28 28 28 25 28
50 49 49 51 49 48 46 46 45 42 40 39 40 43 41 40 40 42 45 47 47 46 46 43 37 41 38 38 41 44 44 45 46 44 44 44 36 33 41 37 32 34 35 32 31 33 35 35 29 26 26 28 29 32
60 56 55 55 56 57 55 53 53 52 52 52 51 49 47 47 48 48 47 48 50 51 52 52 52 50 50 51 51 53 55 55 53 54 54 53 47 39 44 44 43 38 38 38 35 35 36 35 35 30 29 30 32 36
67 64 62 62 60 60 61 60 62 61 57 58 57 55 53 52 53 57 56 58 59 58 57 59 59 59 59 60 60 61 62 63 62 60 60 60 56 48 46 45 45 45 44 42 42 38 37 37 33 29 30 33 36 37
72 71 68 67 68 69 70 67 64 66 68 67 65 64 63 65 65 65 62 60 62 66 69 72 73 72 70 68 68 67 68 69 69 68 67 65 59 59 57 55 52 48 45 43 40 40 38 36 35 33 35 37 39 39
73 72 72 72 68 69 71 71 73 72 73 72 69 69 63 59 58 61 63 63 65 68 70 70 71 71 71 69 69 67 70 73 74 73 70 64 67 63 60 57 56 50 45 42 40 39 38 39 39 40 40 41 42 42
75 77 74 78 71 66 71 72 69 69 68 71 71 70 68 68 70 65 59 60 63 66 67 67 66 66 67 68 68 67 69 70 73 69 62 56 53 56 58 53 49 46 41 40 39 38 38 40 43 44 44 45 45 46
62 63 63 62 63 64 63 62 62 63 64 61 63 65 67 65 60 57 59 60 60 62 65 66 66 66 64 65 63 65 59 58 59 47 46 54 58 57 50 46 42 44 48 49 45 43 43 43 43 45 45 44 43 45
59 60 60 58 59 58 59 58 56 56 62 62 63 65 60 57 57 56 55 54 56 59 61 61 62 65 65 67 67 66 68 67 61 55 56 59 60 55 50 50 48 49 49 48 48 47 46 46 44 45 46 42 39 45
54 54 51 55 54 52 52 53 54 57 58 60 55 54 58 59 57 55 56 57 54 56 58 61 63 60 64 66 66 68 65 58 56 56 54 53 58 56 54 53 52 52 49 47 44 45 46 46 45 45 46 42 40 39
52 52 54 54 55 55 55 56 58 61 60 56 55 51 54 56 58 56 58 56 56 59 60 60 60 63 65 66 63 57 55 54 56 57 58 58 60 59 54 53 54 54 52 49 49 48 48 49 48 46 47 45 40 39
57 58 58 60 61 60 61 62 62 63 58 55 52 53 56 54 53 52 57 58 57 60 62 63 64 66 62 60 59 57 55 57 58 61 63 59 56 54 53 54 53 55 53 51 51 51 48 47 46 45 43 41 39 36
63 63 63 64 67 68 68 67 67 67 59 58 58 60 61 58 58 59 58 59 61 65 67 65 63 61 61 60 59 58 58 58 60 59 60 60 58 55 53 54 51 51 52 50 50 49 49 48 47 46 44 39 36 34
69 67 67 67 68 71 73 72 69 67 67 66 63 66 67 64 64 63 62 62 65 68 66 62 60 59 58 60 60 57 56 57 58 59 58 53 51 56 58 58 53 51 45 44 45 40 40 43 44 45 43 38 38 38
63 63 63 64 65 66 71 73 72 69 71 69 68 68 68 66 65 65 63 67 69 66 62 59 58 57 57 55 56 61 60 56 55 59 57 54 50 45 43 40 49 56 57 48 46 41 38 38 41 43 42 41 41 40
55 57 59 60 59 61 67 70 70 68 68 66 66 67 67 66 66 64 68 68 65 58 54 54 52 52 53 52 52 55 56 60 61 58 58 58 58 53 48 46 40 42 42 39 41 38 36 37 38 39 40 39 38 41
51 51 53 50 53 57 64 66 66 63 64 63 61 59 60 56 54 60 65 62 57 49 46 44 45 47 46 50 53 55 55 58 61 60 59 57 53 45 43 45 47 44 43 42 41 38 34 33 36 37 38 37 37 37
45 45 49 50 50 50 55 58 58 58 57 50 49 51 47 44 50 53 55 51 42 36 38 38 41 44 47 49 49 48 48 52 52 50 43 48 41 36 37 38 40 42 43 43 41 41 34 30 31 33 34 36 35 32
46 49 52 52 50 51 53 54 53 50 47 47 48 45 44 46 49 49 48 34 27 33 33 39 42 45 45 45 44 42 44 50 48 41 32 38 29 28 30 32 33 33 40 43 43 41 35 29 28 28 31 33 30 28
49 51 48 46 47 49 51 52 52 52 51 50 47 47 49 50 50 41 31 26 32 33 38 38 31 30 30 37 38 37 39 40 39 35 28 28 24 34 37 34 32 32 34 34 33 37 30 32 31 30 30 29 27 25
46 46 47 44 46 47 51 52 54 54 52 51 51 51 50 51 43 33 29 28 27 33 33 39 38 36 34 27 29 37 36 34 38 36 29 30 32 38 35 34 29 28 31 34 34 32 30 28 33 36 31 28 25 25
38 36 36 40 41 45 48 49 52 53 50 49 51 51 49 47 45 42 39 40 37 38 38 37 38 43 41 40 35 32 33 36 38 33 35 35 33 32 36 33 29 26 28 29 34 33 30 28 32 32 28 27 27 27
24 23 28 29 35 40 40 39 40 38 40 45 49 54 56 51 44 43 44 43 42 40 42 46 46 44 39 39 38 36 33 36 38 38 32 34 35 38 41 36 30 28 28 27 27 30 31 26 28 27 26 27 27 27
31 35 38 38 38 35 30 23 31 34 37 42 44 51 51 49 48 44 41 39 40 39 40 40 42 42 40 39 39 41 38 36 37 33 30 29 32 40 43 44 36 29 27 28 27 27 30 29 27 25 24 25 26 25
24 29 31 34 34 28 33 34 36 38 37 39 40 40 43 46 44 37 38 46 44 43 41 40 40 37 40 45 45 42 37 37 36 34 33 30 31 34 33 37 41 33 30 26 23 25 28 28 26 23 22 22 23 24
25 29 31 34 35 34 33 39 43 44 43 44 41 37 37 38 39 36 37 40 39 36 37 39 40 37 38 41 44 43 42 39 39 38 38 36 33 35 34 33 36 34 31 28 22 21 25 28 26 23 20 19 23 23

GFSWCAN_500_spd_111.txt.gz
Wind_Speed
45 42 38 36 34 35 32 26 27 24 21 21 21 18 19 15 12 12 11 9 10 13 14 15 15 15 15 14 12 12 11 12 10 9 8 8 8 10 11 12 14 15 15 15 17 19 19 20 20 22 24 27 27 27
46 42 41 38 37 36 36 31 30 30 30 27 25 24 21 21 19 17 16 15 13 11 9 12 15 18 17 18 18 18 17 17 17 18 17 16 17 17 17 15 21 20 23 24 27 24 29 26 25 27 27 28 29 30
50 47 45 41 40 37 35 34 33 32 33 32 31 28 29 25 24 24 23 20 19 17 14 12 11 12 12 14 18 21 21 21 22 22 22 24 26 26 25 25 25 26 30 34 37 27 31 32 29 31 32 34 35 34
50 49 48 45 42 37 35 35 36 36 33 32 35 34 33 31 28 25 26 25 23 20 18 18 17 17 16 16 16 17 17 17 18 16 13 15 15 17 16 17 18 23 30 33 33 33 34 33 29 31 33 34 34 36
51 50 50 46 46 45 40 40 41 38 39 38 38 35 34 33 31 31 28 26 25 23 19 19 20 22 21 20 18 19 18 19 20 19 19 18 19 20 16 11 14 24 26 27 23 27 24 25 28 31 33 35 37 37
55 53 50 50 48 50 48 40 39 38 38 36 37 35 33 33 30 26 28 30 27 26 25 22 19 22 24 25 23 21 21 21 21 23 22 21 24 25 20 18 28 30 27 29 29 31 31 30 30 31 32 33 34 35
56 53 49 53 51 48 46 41 38 36 36 36 35 35 33 32 31 32 30 27 26 26 26 26 26 27 29 29 29 30 31 32 34 33 30 32 34 34 29 34 33 34 35 34 34 36 33 35 35 36 35 34 35 35
57 54 49 53 53 47 41 39 36 36 37 36 35 33 35 33 34 35 36 36 35 35 33 32 28 28 33 36 38 38 39 41 42 43 42 40 39 40 37 45 42 44 43 41 39 39 38 38 40 41 39 39 38 35
56 49 47 48 52 47 43 41 41 41 41 41 41 38 36 34 34 35 37 38 40 41 43 40 38 37 35 38 39 42 43 46 47 47 47 49 45 44 46 47 48 49 48 48 45 47 45 42 41 42 42 42 40 38
50 48 48 49 52 54 51 49 48 49 47 45 44 44 41 41 40 40 43 45 46 46 46 47 50 50 49 48 47 47 46 48 49 51 54 55 55 53 52 52 54 56 54 54 53 52 51 51 50 48 47 45 43 43
55 52 52 51 54 56 57 55 53 53 53 49 49 52 52 49 48 49 49 49 51 52 53 56 56 55 56 57 56 57 58 59 58 58 60 61 65 65 64 64 65 63 62 60 58 57 55 53 53 50 48 47 45 44
61 61 61 59 58 57 58 57 59 59 59 58 56 54 55 53 52 52 54 56 57 56 57 56 57 56 57 58 60 61 62 63 65 65 66 67 68 70 71 71 72 71 70 65 59 53 51 49 48 48 47 46 46 46
67 67 65 65 64 61 62 63 64 65 65 64 61 58 59 60 58 59 59 59 61 61 61 60 63 65 64 63 63 63 62 62 63 63 64 64 64 66 67 68 67 65 61 54 49 47 46 44 45 45 44 42 43 45
67 67 67 68 67 66 65 66 68 67 67 67 67 65 64 64 66 68 68 65 63 62 63 63 63 64 65 64 64 66 66 64 63 63 58 59 60 61 62 61 55 48 47 46 47 44 43 42 38 40 43 46 49 49
69 69 70 70 70 70 69 70 70 71 73 72 72 71 68 69 67 64 63 64 65 65 65 65 65 64 64 65 65 66 67 66 64 59 55 56 57 60 60 59 55 58 61 59 53 48 47 46 46 47 50 49 50 51
60 59 60 60 63 63 63 64 67 70 68 69 73 72 67 62 61 61 58 60 62 63 63 63 63 63 64 66 66 66 69 66 54 50 51 55 57 60 64 63 56 52 49 46 47 48 50 51 52 50 48 49 47 47
52 51 54 56 57 57 59 62 64 65 66 66 63 63 64 62 59 59 60 58 57 57 58 60 62 61 65 68 65 66 62 54 53 52 52 56 60 61 61 60 55 52 48 48 50 53 52 47 44 43 45 44 43 45
47 48 50 52 53 53 54 56 58 61 63 61 58 56 56 58 57 55 55 55 54 54 56 59 62 65 67 66 61 56 57 55 56 55 54 55 55 57 59 57 53 51 47 46 48 51 57 57 53 49 51 49 49 51
51 52 53 54 54 56 57 58 58 59 57 55 54 55 56 55 54 55 57 58 58 59 60 62 65 64 60 56 55 54 55 56 59 59 59 57 57 57 57 56 54 53 51 48 49 49 51 49 51 51 48 46 48 47
57 58 58 58 60 61 62 64 61 61 59 57 56 57 60 58 58 58 59 59 62 65 66 65 62 59 60 57 55 56 58 59 61 60 61 57 56 56 57 55 49 49 50 50 53 50 52 52 48 48 46 43 44 43
63 62 63 64 64 65 68 69 67 65 63 63 61 63 65 64 62 62 61 61 66 69 68 63 63 62 60 60 60 61 62 61 63 64 64 63 58 55 56 54 53 50 48 44 42 45 51 52 50 47 43 42 42 41
49 56 60 62 64 66 68 72 71 70 70 69 69 68 68 67 66 65 67 71 71 68 67 68 66 64 63 64 61 61 62 62 62 62 63 64 63 57 53 53 54 52 49 44 42 45 46 48 51 52 49 42 42 42
54 56 58 58 57 62 64 68 70 72 74 73 73 74 73 70 69 68 73 73 70 67 67 66 62 62 62 60 60 60 59 58 59 60 60 59 57 56 53 50 50 48 46 42 43 42 43 45 43 41 40 40 41 38
50 50 51 54 55 58 60 62 63 64 66 68 69 69 69 66 64 67 72 70 67 64 61 58 58 56 54 53 54 55 54 52 56 55 52 51 52 50 47 42 39 40 41 40 38 39 38 40 42 39 39 35 37 35
47 47 48 50 51 52 56 57 59 58 60 57 58 58 57 53 57 60 61 57 51 46 42 43 44 45 46 47 46 45 43 48 51 50 43 47 48 45 37 33 33 33 36 37 31 34 35 37 40 41 38 34 28 26
46 48 51 50 49 47 46 48 49 50 50 50 51 50 48 50 54 57 49 38 37 35 36 40 42 43 44 42 42 40 39 42 43 40 33 37 39 36 31 30 30 23 32 32 34 37 36 34 35 42 39 36 32 23
48 51 48 44 44 43 43 42 44 49 51 53 50 49 53 58 58 48 38 37 39 36 38 38 36 35 37 39 39 32 30 31 32 35 32 32 32 32 33 33 33 26 27 30 32 33 33 33 33 35 40 39 35 28
49 44 39 37 40 40 44 46 47 47 47 47 51 53 54 54 52 46 45 41 43 39 41 40 40 34 35 38 40 39 34 34 37 38 36 34 31 33 31 35 34 31 32 29 30 27 23 27 32 35 30 32 33 27
37 34 38 39 40 40 38 36 37 37 36 39 44 49 52 52 52 52 47 46 47 46 44 42 44 46 47 45 44 40 39 39 40 41 40 34 32 32 38 35 32 36 36 33 29 26 23 19 21 28 31 34 31 22
22 23 27 25 28 31 29 29 32 31 32 37 42 47 49 47 44 40 43 43 45 48 51 51 49 51 50 47 43 40 40 42 42 43 43 37 31 33 36 35 33 36 38 37 35 30 25 22 19 19 22 28 28 21
18 23 27 30 35 35 37 35 38 40 41 42 43 48 46 39 38 36 39 41 45 48 49 49 50 48 51 45 42 42 44 43 47 46 44 40 35 32 29 29 31 30 32 38 36 33 29 23 23 22 19 23 27 24
26 28 29 33 35 31 34 35 37 40 42 44 42 39 41 46 45 36 27 38 37 32 33 38 44 44 40 39 40 41 41 40 43 46 44 41 36 32 30 27 25 24 25 30 33 29 27 25 21 24 21 21 25 26
20 23 25 27 26 27 27 35 33 30 28 30 27 31 34 42 45 35 34 41 40 33 27 26 30 34 35 37 39 37 37 37 36 39 40 40 39 37 34 30 28 26 24 24 25 25 28 27 21 21 20 19 23 26